AFL261 VHHH-ULLI

Flight info

Callsign AFL261
Flight time 10h 51m
Altitude 32100
Route BEKOL A461 IDUMA W22 SHL A461 YIN/K0933S1010 A461 OBLIK/K0920S1040 W129 CGO B208 NIXAL Y746 DARNO/K0896F340 P982 TR/K0889F360 A308 ABK R104 BA R229 XV B228 LITUN N869 UNISO L870 UNKET/K0902F380 L870 ROMUM T816 AMDEN P979 BEPOL BEPOL1B
Aircraft B77W/H-SDE1E2E3FGHIJ2J3J4J5M1RWXY/LB1D1

Departure

Time 2026-05-06 01:19
Airport Hong Kong International Airport (VHHH)

Arrival

Time 2026-05-06 12:10
Airport Pulkovo Airport (ULLI)
Time Latitude Longitude Altitude Speed Heading
2026-05-06 01:07 22.31144 113.92582 40 ft 0 kts 116°
2026-05-06 01:09 22.31149 113.92571 40 ft 3 kts 120°
2026-05-06 01:09 22.31159 113.92552 40 ft 3 kts 116°
2026-05-06 01:09 22.31168 113.92534 40 ft 3 kts 133°
2026-05-06 01:10 22.31183 113.92522 40 ft 3 kts 163°
2026-05-06 01:10 22.31203 113.92518 39 ft 3 kts 183°
2026-05-06 01:10 22.31220 113.92521 38 ft 1 kts 197°
2026-05-06 01:10 22.31223 113.92522 38 ft 7 kts 198°
2026-05-06 01:12 22.31222 113.92521 38 ft 1 kts 198°
2026-05-06 01:12 22.31201 113.92513 39 ft 9 kts 199°
2026-05-06 01:13 22.31112 113.92469 40 ft 18 kts 206°
2026-05-06 01:13 22.30998 113.92408 40 ft 18 kts 206°
2026-05-06 01:13 22.30883 113.92348 40 ft 18 kts 205°
2026-05-06 01:13 22.30773 113.92339 40 ft 15 kts 161°
2026-05-06 01:14 22.30608 113.92286 40 ft 16 kts 250°
2026-05-06 01:14 22.30564 113.92148 40 ft 24 kts 251°
2026-05-06 01:14 22.30498 113.91942 40 ft 34 kts 250°
2026-05-06 01:15 22.30418 113.91695 40 ft 34 kts 250°
2026-05-06 01:15 22.30350 113.91483 40 ft 27 kts 252°
2026-05-06 01:15 22.30296 113.91322 40 ft 22 kts 252°
2026-05-06 01:15 22.30243 113.91152 40 ft 28 kts 251°
2026-05-06 01:16 22.30166 113.90918 40 ft 37 kts 251°
2026-05-06 01:16 22.30081 113.90654 40 ft 37 kts 250°
2026-05-06 01:16 22.29998 113.90396 40 ft 31 kts 251°
2026-05-06 01:16 22.29929 113.90184 40 ft 30 kts 251°
2026-05-06 01:17 22.29870 113.89997 40 ft 21 kts 251°
2026-05-06 01:17 22.29821 113.89847 40 ft 21 kts 252°
2026-05-06 01:17 22.29726 113.89775 40 ft 19 kts 163°
2026-05-06 01:17 22.29638 113.89847 40 ft 12 kts 83°
2026-05-06 01:18 22.29643 113.89863 40 ft 0 kts 69°
2026-05-06 01:18 22.29643 113.89864 40 ft 0 kts 70°
2026-05-06 01:18 22.29651 113.89888 40 ft 13 kts 70°
2026-05-06 01:18 22.29765 113.90239 40 ft 94 kts 71°
2026-05-06 01:19 22.30080 113.91217 41 ft 180 kts 71°
2026-05-06 01:19 22.30576 113.92676 425 ft 219 kts 68°
2026-05-06 01:19 22.31111 113.94191 1816 ft 214 kts 70°
2026-05-06 01:19 22.31605 113.95749 2959 ft 227 kts 75°
2026-05-06 01:20 22.32118 113.97445 3317 ft 245 kts 73°
2026-05-06 01:20 22.32666 113.99214 3852 ft 251 kts 72°
2026-05-06 01:20 22.33238 114.01025 4434 ft 257 kts 73°
2026-05-06 01:20 22.33785 114.02885 5044 ft 262 kts 82°
2026-05-06 01:21 22.33620 114.04820 5553 ft 260 kts 113°
2026-05-06 01:21 22.32964 114.06658 6202 ft 265 kts 112°
2026-05-06 01:21 22.32294 114.08543 6703 ft 276 kts 115°
2026-05-06 01:21 22.31559 114.10504 7124 ft 286 kts 114°
2026-05-06 01:22 22.30811 114.12520 7691 ft 293 kts 114°
2026-05-06 01:22 22.30058 114.14586 8276 ft 298 kts 113°
2026-05-06 01:22 22.29300 114.16686 8902 ft 302 kts 112°
2026-05-06 01:22 22.28537 114.18817 9520 ft 307 kts 112°
2026-05-06 01:23 22.27763 114.20983 10127 ft 311 kts 112°
2026-05-06 01:23 22.26989 114.23153 10812 ft 311 kts 112°
2026-05-06 01:23 22.26229 114.25360 11350 ft 316 kts 105°
2026-05-06 01:23 22.26094 114.27740 11733 ft 324 kts 77°
2026-05-06 01:24 22.26977 114.29949 12290 ft 322 kts 49°
2026-05-06 01:24 22.28610 114.31565 12864 ft 318 kts 27°
2026-05-06 01:24 22.30558 114.32695 13374 ft 321 kts 24°
2026-05-06 01:24 22.32561 114.33804 13918 ft 325 kts 24°
2026-05-06 01:25 22.34571 114.34933 14482 ft 327 kts 24°
2026-05-06 01:25 22.36592 114.36067 15048 ft 326 kts 20°
2026-05-06 01:25 22.38762 114.36652 15454 ft 322 kts 355°
2026-05-06 01:25 22.40929 114.36203 15929 ft 316 kts 332°
2026-05-06 01:26 22.42763 114.34932 16458 ft 313 kts 314°
2026-05-06 01:26 22.44120 114.33120 16926 ft 312 kts 299°
2026-05-06 01:26 22.45204 114.31071 17365 ft 317 kts 297°
2026-05-06 01:26 22.46263 114.28972 17912 ft 319 kts 297°
2026-05-06 01:27 22.47329 114.26859 18438 ft 321 kts 297°
2026-05-06 01:27 22.48400 114.24759 18901 ft 325 kts 297°
2026-05-06 01:27 22.49520 114.22583 19315 ft 330 kts 298°
2026-05-06 01:27 22.50650 114.20407 19777 ft 332 kts 298°
2026-05-06 01:28 22.51789 114.18220 20250 ft 335 kts 298°
2026-05-06 01:28 22.52946 114.16000 20602 ft 343 kts 298°
2026-05-06 01:28 22.54284 114.13819 20730 ft 356 kts 313°
2026-05-06 01:28 22.56297 114.12206 20956 ft 366 kts 332°
2026-05-06 01:29 22.58612 114.11010 21311 ft 372 kts 333°
2026-05-06 01:29 22.60977 114.09832 21804 ft 375 kts 334°
2026-05-06 01:29 22.63352 114.08650 22315 ft 377 kts 334°
2026-05-06 01:29 22.65708 114.07468 22800 ft 380 kts 334°
2026-05-06 01:30 22.68143 114.06232 23281 ft 383 kts 333°
2026-05-06 01:30 22.70560 114.04997 23765 ft 385 kts 333°
2026-05-06 01:30 22.72989 114.03751 24212 ft 387 kts 333°
2026-05-06 01:30 22.75427 114.02497 24651 ft 389 kts 333°
2026-05-06 01:31 22.77876 114.01236 25095 ft 391 kts 333°
2026-05-06 01:31 22.80339 113.99966 25492 ft 394 kts 333°
2026-05-06 01:31 22.82830 113.98680 25822 ft 399 kts 333°
2026-05-06 01:31 22.85311 113.97402 26245 ft 400 kts 333°
2026-05-06 01:32 22.87829 113.96103 26717 ft 401 kts 333°
2026-05-06 01:32 22.90346 113.94804 27170 ft 402 kts 333°
2026-05-06 01:32 22.92875 113.93492 27578 ft 404 kts 333°
2026-05-06 01:32 22.95417 113.92169 27976 ft 406 kts 332°
2026-05-06 01:33 22.97970 113.90838 28368 ft 408 kts 332°
2026-05-06 01:33 23.00532 113.89503 28780 ft 410 kts 332°
2026-05-06 01:33 23.03117 113.88155 29183 ft 412 kts 332°
2026-05-06 01:33 23.05708 113.86806 29567 ft 414 kts 332°
2026-05-06 01:34 23.08316 113.85447 29931 ft 417 kts 333°
2026-05-06 01:34 23.10999 113.84222 30234 ft 420 kts 338°
2026-05-06 01:34 23.13757 113.83132 30517 ft 423 kts 338°
2026-05-06 01:34 23.16533 113.82058 30821 ft 424 kts 338°
2026-05-06 01:35 23.19318 113.80982 31142 ft 425 kts 338°
2026-05-06 01:35 23.22110 113.79901 31447 ft 426 kts 337°
2026-05-06 01:35 23.24905 113.78811 31726 ft 428 kts 337°
2026-05-06 01:35 23.27689 113.77721 31983 ft 430 kts 337°
2026-05-06 01:36 23.30512 113.76611 32198 ft 433 kts 337°
2026-05-06 01:36 23.33347 113.75495 32429 ft 434 kts 337°
2026-05-06 01:36 23.36197 113.74372 32678 ft 436 kts 336°
2026-05-06 01:36 23.39059 113.73242 32864 ft 440 kts 336°
2026-05-06 01:37 23.41944 113.72104 33036 ft 443 kts 336°
2026-05-06 01:37 23.44847 113.70957 33240 ft 445 kts 336°
2026-05-06 01:37 23.47762 113.69806 33421 ft 447 kts 336°
2026-05-06 01:37 23.50703 113.68644 33560 ft 451 kts 336°
2026-05-06 01:38 23.53663 113.67473 33666 ft 455 kts 336°
2026-05-06 01:38 23.56650 113.66292 33767 ft 458 kts 336°
2026-05-06 01:38 23.59658 113.65101 33890 ft 461 kts 336°
2026-05-06 01:38 23.62683 113.63903 33944 ft 464 kts 336°
2026-05-06 01:39 23.68733 113.61509 33991 ft 461 kts 336°
2026-05-06 01:39 23.74754 113.59123 34012 ft 460 kts 336°
2026-05-06 01:40 23.80770 113.56735 34011 ft 461 kts 336°
2026-05-06 01:40 23.86813 113.54334 34001 ft 463 kts 336°
2026-05-06 01:41 23.92878 113.51924 34001 ft 463 kts 336°
2026-05-06 01:41 23.98925 113.49516 34002 ft 462 kts 336°
2026-05-06 01:42 24.04955 113.47113 33999 ft 461 kts 336°
2026-05-06 01:42 24.10965 113.44714 34010 ft 459 kts 336°
2026-05-06 01:43 24.16947 113.42324 33997 ft 457 kts 336°
2026-05-06 01:43 24.23123 113.40642 34013 ft 470 kts 355°
2026-05-06 01:44 24.26410 113.40990 34012 ft 481 kts
2026-05-06 01:44 24.29632 113.42116 34019 ft 491 kts 20°
2026-05-06 01:44 24.32619 113.43970 34007 ft 499 kts 33°
2026-05-06 01:44 24.35149 113.46521 34007 ft 507 kts 47°
2026-05-06 01:45 24.37054 113.49799 33989 ft 514 kts 64°
2026-05-06 01:45 24.38061 113.53567 34005 ft 519 kts 82°
2026-05-06 01:45 24.38087 113.57520 34012 ft 521 kts 98°
2026-05-06 01:45 24.37175 113.61362 34014 ft 522 kts 114°
2026-05-06 01:46 24.35442 113.64831 34005 ft 519 kts 129°
2026-05-06 01:46 24.33049 113.67772 34013 ft 515 kts 141°
2026-05-06 01:46 24.30175 113.70056 33982 ft 508 kts 158°
2026-05-06 01:46 24.26932 113.71475 34028 ft 499 kts 165°
2026-05-06 01:47 24.21414 113.73582 34010 ft 502 kts 164°
2026-05-06 01:47 24.14855 113.76270 34007 ft 505 kts 163°
2026-05-06 01:48 24.08252 113.78767 33988 ft 495 kts 177°
2026-05-06 01:48 24.04862 113.78830 34011 ft 484 kts 194°
2026-05-06 01:48 24.01660 113.77865 34022 ft 474 kts 210°
2026-05-06 01:49 23.98822 113.76106 34001 ft 466 kts 221°
2026-05-06 01:49 23.96427 113.73786 34010 ft 458 kts 232°
2026-05-06 01:49 23.93160 113.67976 33990 ft 446 kts 254°
2026-05-06 01:50 23.92486 113.64698 34004 ft 441 kts 266°
2026-05-06 01:50 23.92551 113.61359 34000 ft 439 kts 279°
2026-05-06 01:50 23.93330 113.58182 34010 ft 441 kts 292°
2026-05-06 01:50 23.94763 113.55219 34017 ft 444 kts 303°
2026-05-06 01:51 23.99178 113.50080 34002 ft 451 kts 321°
2026-05-06 01:51 24.01954 113.48441 33998 ft 456 kts 335°
2026-05-06 01:51 24.04947 113.47248 34004 ft 460 kts 336°
2026-05-06 01:52 24.10970 113.44883 34012 ft 457 kts 335°
2026-05-06 01:52 24.16874 113.42414 33992 ft 453 kts 334°
2026-05-06 01:53 24.22950 113.40507 34006 ft 467 kts 354°
2026-05-06 01:53 24.26224 113.40816 34017 ft 480 kts
2026-05-06 01:53 24.29427 113.41975 34017 ft 491 kts 21°
2026-05-06 01:54 24.32410 113.43864 34006 ft 499 kts 32°
2026-05-06 01:54 24.34993 113.46425 34004 ft 505 kts 46°
2026-05-06 01:54 24.36967 113.49632 33986 ft 512 kts 62°
2026-05-06 01:54 24.38089 113.53340 34001 ft 516 kts 79°
2026-05-06 01:55 24.38220 113.57270 34008 ft 520 kts 97°
2026-05-06 01:55 24.37377 113.61117 34019 ft 521 kts 113°
2026-05-06 01:55 24.35685 113.64614 34004 ft 518 kts 128°
2026-05-06 01:55 24.33338 113.67584 34015 ft 515 kts 140°
2026-05-06 01:56 24.30553 113.69935 33986 ft 509 kts 155°
2026-05-06 01:56 24.27343 113.71443 34024 ft 499 kts 165°
2026-05-06 01:56 24.20765 113.73959 34014 ft 502 kts 164°
2026-05-06 01:57 24.14200 113.76657 34002 ft 505 kts 163°
2026-05-06 01:57 24.07568 113.79006 33993 ft 493 kts 180°
2026-05-06 01:58 24.04202 113.78874 34013 ft 480 kts 197°
2026-05-06 01:58 24.01079 113.77754 34024 ft 469 kts 212°
2026-05-06 01:58 23.98397 113.75949 34005 ft 463 kts 223°
2026-05-06 01:58 23.96057 113.73560 34016 ft 458 kts 233°
2026-05-06 01:59 23.92891 113.67653 33994 ft 449 kts 255°
2026-05-06 01:59 23.92289 113.64328 34005 ft 445 kts 268°
2026-05-06 01:59 23.92456 113.60959 34000 ft 444 kts 281°
2026-05-06 02:00 23.93366 113.57751 34000 ft 444 kts 294°
2026-05-06 02:00 23.94920 113.54834 34015 ft 446 kts 304°
2026-05-06 02:00 23.99261 113.49975 33993 ft 452 kts 322°
2026-05-06 02:01 24.02070 113.48399 34007 ft 456 kts 335°
2026-05-06 02:01 24.05067 113.47219 34008 ft 460 kts 336°
2026-05-06 02:01 24.11086 113.44842 34010 ft 457 kts 335°
2026-05-06 02:02 24.16985 113.42365 33993 ft 453 kts 334°
2026-05-06 02:02 24.23077 113.40508 34008 ft 467 kts 355°
2026-05-06 02:03 24.26352 113.40855 34013 ft 481 kts
2026-05-06 02:03 24.29551 113.42049 34021 ft 492 kts 21°
2026-05-06 02:03 24.32513 113.43967 34011 ft 499 kts 33°
2026-05-06 02:03 24.35068 113.46568 34007 ft 505 kts 47°
2026-05-06 02:04 24.36993 113.49808 33986 ft 512 kts 63°
2026-05-06 02:04 24.38051 113.53538 34001 ft 516 kts 81°
2026-05-06 02:04 24.38117 113.57469 34006 ft 519 kts 98°
2026-05-06 02:04 24.37216 113.61292 34017 ft 519 kts 114°
2026-05-06 02:05 24.35463 113.64738 34003 ft 517 kts 130°
2026-05-06 02:05 24.32992 113.67553 33998 ft 510 kts 146°
2026-05-06 02:05 24.29993 113.69550 33997 ft 501 kts 162°
2026-05-06 02:05 24.26692 113.70629 34011 ft 491 kts 177°
2026-05-06 02:06 24.23319 113.70781 34013 ft 481 kts 191°
2026-05-06 02:06 24.20079 113.70063 34014 ft 471 kts 204°
2026-05-06 02:06 24.17135 113.68574 34012 ft 462 kts 217°
2026-05-06 02:06 24.14624 113.66438 34013 ft 455 kts 230°
2026-05-06 02:07 24.12645 113.63781 34025 ft 448 kts 242°
2026-05-06 02:07 24.11271 113.60750 33993 ft 442 kts 254°
2026-05-06 02:07 24.10560 113.57497 33997 ft 439 kts 265°
2026-05-06 02:07 24.10523 113.54169 34013 ft 437 kts 277°
2026-05-06 02:08 24.11141 113.50918 34004 ft 438 kts 288°
2026-05-06 02:08 24.12360 113.47864 34012 ft 439 kts 297°
2026-05-06 02:08 24.16123 113.42653 33976 ft 448 kts 322°
2026-05-06 02:09 24.18943 113.41159 34011 ft 459 kts 342°
2026-05-06 02:09 24.22156 113.40804 34012 ft 473 kts 359°
2026-05-06 02:09 24.28757 113.41710 34004 ft 478 kts
2026-05-06 02:10 24.35357 113.42111 33999 ft 473 kts 356°
2026-05-06 02:10 24.41917 113.42220 34006 ft 471 kts 356°
2026-05-06 02:11 24.48467 113.42388 34002 ft 470 kts 356°
2026-05-06 02:11 24.55006 113.42581 34003 ft 470 kts 356°
2026-05-06 02:12 24.61538 113.42773 34010 ft 470 kts 356°
2026-05-06 02:12 24.68078 113.42957 34015 ft 469 kts 356°
2026-05-06 02:13 24.74590 113.43142 33993 ft 467 kts 356°
2026-05-06 02:13 24.81057 113.43330 34005 ft 463 kts 356°
2026-05-06 02:14 24.87460 113.43512 33992 ft 463 kts 356°
2026-05-06 02:14 24.93903 113.43695 34019 ft 463 kts 356°
2026-05-06 02:15 25.00359 113.43879 34001 ft 461 kts 356°
2026-05-06 02:15 25.06714 113.44061 34004 ft 459 kts 356°
2026-05-06 02:16 25.13109 113.44242 34015 ft 461 kts 356°
2026-05-06 02:16 25.19489 113.44424 34011 ft 461 kts 356°
2026-05-06 02:17 25.25932 113.44610 34004 ft 459 kts 356°
2026-05-06 02:17 25.32301 113.44794 34025 ft 458 kts 356°
2026-05-06 02:18 25.38670 113.44974 34024 ft 457 kts 356°
2026-05-06 02:18 25.45034 113.45159 34004 ft 456 kts 356°
2026-05-06 02:19 25.51392 113.45341 34019 ft 458 kts 356°
2026-05-06 02:19 25.57755 113.45522 33997 ft 457 kts 356°
2026-05-06 02:20 25.67270 113.45797 34009 ft 456 kts 356°
2026-05-06 02:21 25.73619 113.45980 33991 ft 456 kts 356°
2026-05-06 02:21 25.79974 113.46165 33998 ft 457 kts 356°
2026-05-06 02:22 25.86328 113.46348 33984 ft 457 kts 356°
2026-05-06 02:22 25.92678 113.46538 33978 ft 456 kts 356°
2026-05-06 02:23 25.99020 113.46738 33970 ft 455 kts 356°
2026-05-06 02:23 26.04275 113.46904 33972 ft 455 kts 356°
2026-05-06 02:24 26.10616 113.47097 33976 ft 457 kts 356°
2026-05-06 02:24 26.16985 113.47299 33971 ft 458 kts 356°
2026-05-06 02:25 26.23367 113.47499 33962 ft 459 kts 356°
2026-05-06 02:25 26.29752 113.47699 33958 ft 459 kts 356°
2026-05-06 02:26 26.36121 113.47898 33960 ft 458 kts 356°
2026-05-06 02:26 26.42479 113.48097 33955 ft 456 kts 356°
2026-05-06 02:27 26.48809 113.48296 33953 ft 454 kts 356°
2026-05-06 02:27 26.55119 113.48493 33953 ft 454 kts 356°
2026-05-06 02:28 26.61439 113.48690 33950 ft 455 kts 356°
2026-05-06 02:28 26.67783 113.48888 33959 ft 457 kts 356°
2026-05-06 02:29 26.74149 113.49088 33945 ft 457 kts 356°
2026-05-06 02:29 26.80502 113.49288 33945 ft 456 kts 356°
2026-05-06 02:30 26.86848 113.49489 33961 ft 456 kts 356°
2026-05-06 02:30 26.93202 113.49690 33955 ft 457 kts 356°
2026-05-06 02:31 26.99520 113.49890 33959 ft 458 kts 356°
2026-05-06 02:31 27.05868 113.50088 33951 ft 456 kts 357°
2026-05-06 02:32 27.12168 113.50289 33957 ft 457 kts 356°
2026-05-06 02:32 27.18577 113.50492 33962 ft 457 kts 357°
2026-05-06 02:33 27.24937 113.50693 33951 ft 457 kts 357°
2026-05-06 02:33 27.27083 113.50756 33955 ft 457 kts 356°
2026-05-06 02:34 27.37652 113.51008 33949 ft 457 kts 356°
2026-05-06 02:34 27.44012 113.51159 33951 ft 457 kts 356°
2026-05-06 02:35 27.50366 113.51314 33957 ft 457 kts 356°
2026-05-06 02:35 27.56727 113.51469 33945 ft 457 kts 356°
2026-05-06 02:36 27.63095 113.51625 33941 ft 457 kts 356°
2026-05-06 02:36 27.69459 113.51993 33944 ft 459 kts 360°
2026-05-06 02:37 27.75823 113.52572 33952 ft 459 kts
2026-05-06 02:37 27.82187 113.53147 33947 ft 459 kts 360°
2026-05-06 02:38 27.88547 113.53698 33945 ft 458 kts 360°
2026-05-06 02:38 27.94901 113.54241 33937 ft 458 kts 360°
2026-05-06 02:39 28.01210 113.54781 33951 ft 458 kts 359°
2026-05-06 02:39 28.07565 113.55327 33940 ft 458 kts 360°
2026-05-06 02:40 28.13915 113.55846 33939 ft 456 kts 359°
2026-05-06 02:40 28.20252 113.56275 33944 ft 456 kts 359°
2026-05-06 02:41 28.26589 113.56699 33936 ft 456 kts 358°
2026-05-06 02:41 28.32865 113.57134 33939 ft 454 kts 359°
2026-05-06 02:42 28.39186 113.57574 33934 ft 455 kts 359°
2026-05-06 02:42 28.45524 113.58014 33930 ft 456 kts 359°
2026-05-06 02:43 28.51871 113.58451 33928 ft 457 kts 359°
2026-05-06 02:43 28.58246 113.58874 33946 ft 462 kts 359°
2026-05-06 02:44 28.64725 113.59303 33932 ft 470 kts 359°
2026-05-06 02:44 28.71265 113.59743 33912 ft 473 kts 359°
2026-05-06 02:45 28.77825 113.60193 33915 ft 472 kts 359°
2026-05-06 02:45 28.84374 113.60699 33913 ft 471 kts 359°
2026-05-06 02:46 28.90907 113.61214 33911 ft 470 kts 359°
2026-05-06 02:46 28.97430 113.61722 33916 ft 469 kts 359°
2026-05-06 02:47 29.03931 113.62224 33916 ft 469 kts 359°
2026-05-06 02:47 29.10460 113.62729 33926 ft 471 kts 359°
2026-05-06 02:48 29.16973 113.63232 33941 ft 473 kts 359°
2026-05-06 02:48 29.23561 113.63745 33914 ft 474 kts 359°
2026-05-06 02:49 29.30149 113.64266 33904 ft 473 kts 359°
2026-05-06 02:49 29.36702 113.64796 33910 ft 471 kts 359°
2026-05-06 02:50 29.43223 113.65321 33907 ft 471 kts 359°
2026-05-06 02:50 29.49752 113.65850 33888 ft 470 kts 359°
2026-05-06 02:51 29.56295 113.66380 33886 ft 469 kts 359°
2026-05-06 02:51 29.62793 113.66905 33901 ft 470 kts 359°
2026-05-06 02:52 29.69314 113.67431 33890 ft 472 kts 359°
2026-05-06 02:52 29.75875 113.67964 33881 ft 473 kts 359°
2026-05-06 02:53 29.82446 113.68498 33883 ft 473 kts 359°
2026-05-06 02:53 29.89004 113.69311 33872 ft 479 kts
2026-05-06 02:54 29.95421 113.71484 33878 ft 487 kts 17°
2026-05-06 02:54 30.01614 113.74642 33878 ft 488 kts 19°
2026-05-06 02:55 30.07799 113.77890 33875 ft 489 kts 19°
2026-05-06 02:55 30.14014 113.81110 33877 ft 489 kts 19°
2026-05-06 02:56 30.20258 113.84315 33876 ft 490 kts 19°
2026-05-06 02:56 30.26467 113.87501 33873 ft 490 kts 19°
2026-05-06 02:57 30.32723 113.90718 33879 ft 491 kts 19°
2026-05-06 02:57 30.38953 113.93928 33875 ft 492 kts 20°
2026-05-06 02:58 30.45190 113.97148 33871 ft 492 kts 20°
2026-05-06 02:58 30.51469 114.00393 33871 ft 492 kts 20°
2026-05-06 02:59 30.57745 114.03642 33897 ft 492 kts 20°
2026-05-06 02:59 30.63958 114.06885 33880 ft 492 kts 20°
2026-05-06 03:00 30.70205 114.10157 33883 ft 492 kts 20°
2026-05-06 03:00 30.76428 114.13419 33884 ft 492 kts 20°
2026-05-06 03:01 30.82689 114.16703 33897 ft 491 kts 20°
2026-05-06 03:01 30.88929 114.19980 33885 ft 492 kts 20°
2026-05-06 03:02 30.95121 114.23236 33879 ft 492 kts 20°
2026-05-06 03:02 31.01357 114.26522 33875 ft 492 kts 20°
2026-05-06 03:03 31.07599 114.29815 33885 ft 492 kts 20°
2026-05-06 03:03 31.13823 114.33103 33884 ft 492 kts 20°
2026-05-06 03:04 31.20056 114.36401 33870 ft 492 kts 20°
2026-05-06 03:04 31.26320 114.39719 33882 ft 492 kts 20°
2026-05-06 03:05 31.32662 114.42448 33878 ft 485 kts
2026-05-06 03:05 31.39251 114.43754 33877 ft 477 kts
2026-05-06 03:06 31.45871 114.44322 33878 ft 476 kts 359°
2026-05-06 03:06 31.52488 114.44894 33873 ft 476 kts 360°
2026-05-06 03:07 31.59089 114.45509 33874 ft 476 kts
2026-05-06 03:07 31.65696 114.46136 33867 ft 476 kts
2026-05-06 03:08 31.72298 114.46763 33870 ft 476 kts
2026-05-06 03:08 31.78856 114.47382 33876 ft 477 kts 360°
2026-05-06 03:09 31.85529 114.48007 33853 ft 478 kts 360°
2026-05-06 03:09 31.92128 114.48629 33856 ft 478 kts 360°
2026-05-06 03:10 31.98761 114.49255 33851 ft 478 kts 360°
2026-05-06 03:10 32.05395 114.49882 33863 ft 479 kts 359°
2026-05-06 03:11 32.12019 114.50509 33855 ft 479 kts 359°
2026-05-06 03:11 32.17549 114.51033 33845 ft 478 kts 359°
2026-05-06 03:12 32.24210 114.51665 33846 ft 478 kts 359°
2026-05-06 03:12 32.30797 114.52121 33845 ft 473 kts 353°
2026-05-06 03:13 32.37310 114.51256 33846 ft 464 kts 342°
2026-05-06 03:13 32.43498 114.49375 33849 ft 462 kts 340°
2026-05-06 03:14 32.49721 114.47400 33846 ft 463 kts 340°
2026-05-06 03:14 32.55952 114.45451 33849 ft 464 kts 341°
2026-05-06 03:15 32.62230 114.43510 33846 ft 465 kts 341°
2026-05-06 03:15 32.68457 114.41589 33843 ft 465 kts 341°
2026-05-06 03:16 32.74691 114.39663 33840 ft 464 kts 341°
2026-05-06 03:16 32.80971 114.37717 33842 ft 467 kts 341°
2026-05-06 03:17 32.87297 114.35753 33838 ft 471 kts 341°
2026-05-06 03:17 32.93647 114.33782 33831 ft 470 kts 341°
2026-05-06 03:18 32.99957 114.31820 33826 ft 468 kts 341°
2026-05-06 03:18 33.06238 114.29862 33840 ft 469 kts 341°
2026-05-06 03:19 33.12569 114.27885 33834 ft 471 kts 341°
2026-05-06 03:19 33.18925 114.25898 33829 ft 473 kts 341°
2026-05-06 03:20 33.28472 114.22908 33828 ft 473 kts 341°
2026-05-06 03:20 33.34831 114.20914 33821 ft 471 kts 341°
2026-05-06 03:21 33.41159 114.18942 33817 ft 469 kts 341°
2026-05-06 03:21 33.47460 114.17003 33821 ft 468 kts 341°
2026-05-06 03:22 33.53773 114.15055 33827 ft 468 kts 341°
2026-05-06 03:22 33.60093 114.13098 33826 ft 470 kts 341°
2026-05-06 03:23 33.66452 114.11125 33817 ft 471 kts 341°
2026-05-06 03:23 33.72758 114.09166 33812 ft 471 kts 341°
2026-05-06 03:24 33.79092 114.07195 33811 ft 470 kts 341°
2026-05-06 03:24 33.85451 114.05214 33818 ft 470 kts 340°
2026-05-06 03:25 33.91775 114.03239 33812 ft 470 kts 340°
2026-05-06 03:25 33.98104 114.01260 33811 ft 470 kts 340°
2026-05-06 03:26 34.04365 113.99300 33805 ft 470 kts 340°
2026-05-06 03:26 34.10723 113.97306 33805 ft 470 kts 340°
2026-05-06 03:27 34.17025 113.95326 33805 ft 470 kts 340°
2026-05-06 03:27 34.23367 113.93331 33803 ft 471 kts 340°
2026-05-06 03:28 34.29727 113.91326 33798 ft 471 kts 340°
2026-05-06 03:28 34.36042 113.89335 33806 ft 470 kts 340°
2026-05-06 03:29 34.42366 113.87336 33784 ft 467 kts 340°
2026-05-06 03:29 34.48611 113.85357 33794 ft 464 kts 340°
2026-05-06 03:30 34.54845 113.83364 33806 ft 464 kts 339°
2026-05-06 03:30 34.61064 113.81308 33804 ft 461 kts 339°
2026-05-06 03:31 34.67232 113.79262 33795 ft 458 kts 339°
2026-05-06 03:31 34.73396 113.77218 33805 ft 460 kts 339°
2026-05-06 03:32 34.79583 113.75167 33789 ft 461 kts 339°
2026-05-06 03:32 34.85796 113.73100 33785 ft 461 kts 337°
2026-05-06 03:33 34.91844 113.70577 33790 ft 458 kts 334°
2026-05-06 03:33 34.97802 113.67912 33779 ft 459 kts 334°
2026-05-06 03:34 35.03786 113.65245 33771 ft 459 kts 334°
2026-05-06 03:34 35.09830 113.62570 33796 ft 459 kts 333°
2026-05-06 03:35 35.15818 113.59923 33782 ft 460 kts 333°
2026-05-06 03:35 35.21811 113.57270 33775 ft 459 kts 333°
2026-05-06 03:36 35.27825 113.54601 33775 ft 459 kts 333°
2026-05-06 03:36 35.33833 113.51931 33783 ft 458 kts 333°
2026-05-06 03:37 35.39809 113.49270 33786 ft 457 kts 333°
2026-05-06 03:37 35.45791 113.46605 33807 ft 457 kts 333°
2026-05-06 03:38 35.51767 113.43959 33789 ft 456 kts 333°
2026-05-06 03:38 35.57695 113.41341 33838 ft 453 kts 333°
2026-05-06 03:39 35.63672 113.38668 33819 ft 458 kts 333°
2026-05-06 03:39 35.69628 113.36017 33817 ft 456 kts 333°
2026-05-06 03:40 35.75594 113.33363 33816 ft 453 kts 333°
2026-05-06 03:40 35.81529 113.30703 33825 ft 454 kts 333°
2026-05-06 03:41 35.87475 113.28042 33839 ft 456 kts 333°
2026-05-06 03:41 35.93439 113.25381 33826 ft 457 kts 333°
2026-05-06 03:42 35.99432 113.22704 33818 ft 456 kts 333°
2026-05-06 03:42 36.05396 113.20033 33814 ft 456 kts 333°
2026-05-06 03:43 36.11337 113.17368 33830 ft 455 kts 333°
2026-05-06 03:43 36.17299 113.14686 33820 ft 456 kts 333°
2026-05-06 03:44 36.23261 113.12006 33813 ft 456 kts 333°
2026-05-06 03:44 36.29402 113.09840 33825 ft 460 kts 338°
2026-05-06 03:45 36.35594 113.07883 33825 ft 460 kts 338°
2026-05-06 03:45 36.41774 113.05908 33814 ft 459 kts 338°
2026-05-06 03:46 36.47953 113.03904 33814 ft 458 kts 338°
2026-05-06 03:46 36.54120 113.01893 33815 ft 458 kts 338°
2026-05-06 03:47 36.60146 112.99924 33823 ft 459 kts 338°
2026-05-06 03:47 36.66325 112.97904 33822 ft 459 kts 338°
2026-05-06 03:48 36.72522 112.95875 33817 ft 460 kts 338°
2026-05-06 03:48 36.78709 112.93847 33821 ft 459 kts 338°
2026-05-06 03:49 36.84866 112.91822 33846 ft 459 kts 338°
2026-05-06 03:49 36.91044 112.89783 33830 ft 461 kts 338°
2026-05-06 03:50 36.97255 112.87732 33831 ft 461 kts 338°
2026-05-06 03:50 37.03461 112.85678 33822 ft 461 kts 338°
2026-05-06 03:51 37.09686 112.83619 33844 ft 461 kts 337°
2026-05-06 03:51 37.15892 112.81571 33841 ft 461 kts 337°
2026-05-06 03:52 37.22085 112.79522 33829 ft 461 kts 337°
2026-05-06 03:52 37.28252 112.77476 33838 ft 462 kts 337°
2026-05-06 03:53 37.34521 112.75394 33845 ft 466 kts 337°
2026-05-06 03:53 37.40793 112.73309 33836 ft 466 kts 337°
2026-05-06 03:54 37.47044 112.71225 33840 ft 467 kts 337°
2026-05-06 03:54 37.53319 112.69130 33848 ft 466 kts 337°
2026-05-06 03:55 37.59565 112.67041 33857 ft 465 kts 337°
2026-05-06 03:55 37.65819 112.64961 33852 ft 462 kts 338°
2026-05-06 03:56 37.72039 112.62923 33849 ft 459 kts 338°
2026-05-06 03:56 37.78246 112.61102 33847 ft 463 kts 341°
2026-05-06 03:57 37.83571 112.59856 33862 ft 465 kts 341°
2026-05-06 03:57 37.89907 112.58340 33858 ft 464 kts 341°
2026-05-06 03:58 37.96248 112.56847 33856 ft 463 kts 341°
2026-05-06 03:58 38.02566 112.55368 33892 ft 462 kts 341°
2026-05-06 03:59 38.08923 112.53870 33886 ft 465 kts 341°
2026-05-06 03:59 38.15272 112.52370 33876 ft 467 kts 341°
2026-05-06 04:00 38.21666 112.50855 33895 ft 467 kts 341°
2026-05-06 04:00 38.28051 112.49344 33905 ft 467 kts 341°
2026-05-06 04:01 38.34427 112.47830 33904 ft 466 kts 341°
2026-05-06 04:01 38.40779 112.46319 33897 ft 465 kts 341°
2026-05-06 04:02 38.47144 112.44805 33931 ft 464 kts 341°
2026-05-06 04:02 38.53523 112.43275 33938 ft 467 kts 341°
2026-05-06 04:03 38.59933 112.41747 33924 ft 466 kts 341°
2026-05-06 04:03 38.66277 112.40222 33957 ft 466 kts 341°
2026-05-06 04:04 38.72680 112.38681 33973 ft 468 kts 340°
2026-05-06 04:04 38.79060 112.37161 33967 ft 465 kts 340°
2026-05-06 04:05 38.85448 112.35608 33962 ft 468 kts 340°
2026-05-06 04:05 38.91854 112.34056 33959 ft 467 kts 340°
2026-05-06 04:06 38.98200 112.32527 33986 ft 466 kts 340°
2026-05-06 04:06 39.04553 112.30987 33976 ft 466 kts 340°
2026-05-06 04:07 39.10933 112.29439 33992 ft 464 kts 340°
2026-05-06 04:07 39.17299 112.27891 34026 ft 464 kts 340°
2026-05-06 04:08 39.23637 112.26346 33993 ft 463 kts 340°
2026-05-06 04:08 39.29944 112.24807 33994 ft 461 kts 340°
2026-05-06 04:09 39.36202 112.23276 33995 ft 461 kts 340°
2026-05-06 04:09 39.42547 112.21715 34004 ft 463 kts 339°
2026-05-06 04:10 39.48885 112.20160 34006 ft 463 kts 339°
2026-05-06 04:10 39.55190 112.18633 34013 ft 463 kts 340°
2026-05-06 04:11 39.61505 112.17115 34039 ft 462 kts 340°
2026-05-06 04:11 39.67841 112.15585 34022 ft 462 kts 339°
2026-05-06 04:12 39.74145 112.14058 34020 ft 461 kts 339°
2026-05-06 04:12 39.80449 112.12525 34027 ft 463 kts 340°
2026-05-06 04:13 39.86852 112.10962 34028 ft 471 kts 339°
2026-05-06 04:13 39.93301 112.09395 34018 ft 470 kts 339°
2026-05-06 04:14 39.99702 112.07835 34025 ft 467 kts 339°
2026-05-06 04:14 40.06097 112.06264 34038 ft 468 kts 339°
2026-05-06 04:15 40.12458 112.04699 34030 ft 467 kts 339°
2026-05-06 04:15 40.18835 112.03127 34014 ft 466 kts 339°
2026-05-06 04:16 40.25234 112.01550 34023 ft 466 kts 339°
2026-05-06 04:16 40.31558 111.99994 34027 ft 467 kts 338°
2026-05-06 04:17 40.37827 111.98449 34017 ft 467 kts 338°
2026-05-06 04:17 40.44193 111.96947 34010 ft 467 kts 339°
2026-05-06 04:18 40.50579 111.95561 34019 ft 466 kts 339°
2026-05-06 04:18 40.56961 111.94154 34014 ft 463 kts 339°
2026-05-06 04:19 40.63316 111.92727 34016 ft 462 kts 338°
2026-05-06 04:19 40.69532 111.90909 34057 ft 457 kts 335°
2026-05-06 04:20 40.75698 111.88821 34032 ft 452 kts 332°
2026-05-06 04:20 40.81680 111.86454 34019 ft 449 kts 331°
2026-05-06 04:21 40.87637 111.84058 34022 ft 449 kts 331°
2026-05-06 04:21 40.93675 111.81646 34036 ft 451 kts 331°
2026-05-06 04:22 40.99683 111.79256 34037 ft 452 kts 331°
2026-05-06 04:23 41.08714 111.75668 34039 ft 454 kts 331°
2026-05-06 04:23 41.14781 111.73258 34044 ft 454 kts 331°
2026-05-06 04:24 41.20798 111.70857 34055 ft 454 kts 331°
2026-05-06 04:24 41.26869 111.68428 34056 ft 453 kts 331°
2026-05-06 04:25 41.32896 111.66013 34052 ft 452 kts 331°
2026-05-06 04:25 41.38923 111.63593 34065 ft 452 kts 331°
2026-05-06 04:26 41.44919 111.61182 34059 ft 452 kts 331°
2026-05-06 04:26 41.50930 111.58759 34059 ft 451 kts 331°
2026-05-06 04:27 41.56943 111.56331 34106 ft 451 kts 330°
2026-05-06 04:27 41.62962 111.53890 34066 ft 453 kts 330°
2026-05-06 04:28 41.69010 111.51438 34067 ft 455 kts 330°
2026-05-06 04:28 41.75056 111.48984 34070 ft 454 kts 330°
2026-05-06 04:29 41.81115 111.46520 34083 ft 454 kts 330°
2026-05-06 04:29 41.87122 111.44072 34076 ft 452 kts 330°
2026-05-06 04:30 41.93134 111.41616 34068 ft 450 kts 330°
2026-05-06 04:30 41.99093 111.39176 34117 ft 448 kts 329°
2026-05-06 04:31 42.05087 111.36712 34094 ft 449 kts 329°
2026-05-06 04:31 42.11073 111.34251 34072 ft 449 kts 329°
2026-05-06 04:32 42.17038 111.31795 34077 ft 449 kts 329°
2026-05-06 04:32 42.23001 111.29336 34103 ft 449 kts 329°
2026-05-06 04:33 42.28968 111.26883 34102 ft 449 kts 329°
2026-05-06 04:33 42.34948 111.24423 34094 ft 449 kts 329°
2026-05-06 04:34 42.40897 111.21970 34083 ft 448 kts 329°
2026-05-06 04:34 42.46883 111.19494 34098 ft 447 kts 328°
2026-05-06 04:35 42.52809 111.17037 34095 ft 446 kts 328°
2026-05-06 04:35 42.58740 111.14575 34085 ft 445 kts 328°
2026-05-06 04:36 42.64618 111.12129 34148 ft 443 kts 328°
2026-05-06 04:36 42.70533 111.09662 34107 ft 441 kts 328°
2026-05-06 04:37 42.76399 111.07213 34094 ft 439 kts 328°
2026-05-06 04:37 42.82187 111.04788 34109 ft 438 kts 328°
2026-05-06 04:38 42.88016 111.02338 34104 ft 438 kts 328°
2026-05-06 04:38 42.93719 110.99945 34103 ft 435 kts 328°
2026-05-06 04:39 42.99486 110.97514 34113 ft 436 kts 328°
2026-05-06 04:39 43.05262 110.95072 34172 ft 437 kts 328°
2026-05-06 04:40 43.11041 110.92629 34113 ft 436 kts 328°
2026-05-06 04:40 43.16841 110.90165 34097 ft 430 kts 326°
2026-05-06 04:40 43.19498 110.88595 34131 ft 409 kts 316°
2026-05-06 04:41 43.21880 110.86581 34111 ft 397 kts 311°
2026-05-06 04:41 43.24056 110.84280 34122 ft 385 kts 304°
2026-05-06 04:41 43.25916 110.81744 34141 ft 377 kts 301°
2026-05-06 04:42 43.28949 110.77402 34134 ft 379 kts 301°
2026-05-06 04:42 43.33218 110.71276 34142 ft 382 kts 301°
2026-05-06 04:43 43.36898 110.66016 34138 ft 383 kts 302°
2026-05-06 04:43 43.40002 110.61583 34135 ft 383 kts 302°
2026-05-06 04:44 43.43687 110.56325 34134 ft 382 kts 302°
2026-05-06 04:44 43.47341 110.51098 34140 ft 380 kts 302°
2026-05-06 04:45 43.51019 110.45825 34138 ft 378 kts 302°
2026-05-06 04:45 43.54647 110.40610 34168 ft 381 kts 302°
2026-05-06 04:46 43.58343 110.35275 34165 ft 387 kts 303°
2026-05-06 04:46 43.62057 110.29922 34154 ft 387 kts 303°
2026-05-06 04:47 43.65786 110.24544 34160 ft 385 kts 303°
2026-05-06 04:47 43.69477 110.19205 34162 ft 384 kts 303°
2026-05-06 04:48 43.73151 110.13874 34197 ft 385 kts 304°
2026-05-06 04:48 43.76864 110.08471 34184 ft 388 kts 304°
2026-05-06 04:49 43.80585 110.03056 34194 ft 390 kts 305°
2026-05-06 04:49 43.84222 109.97753 34181 ft 389 kts 305°
2026-05-06 04:50 43.87944 109.92317 34160 ft 387 kts 305°
2026-05-06 04:50 43.91629 109.86925 34191 ft 383 kts 305°
2026-05-06 04:51 43.95267 109.81590 34171 ft 379 kts 305°
2026-05-06 04:51 43.98884 109.76270 34192 ft 380 kts 305°
2026-05-06 04:52 44.02515 109.70915 34201 ft 381 kts 305°
2026-05-06 04:52 44.06134 109.65575 34210 ft 382 kts 305°
2026-05-06 04:53 44.09791 109.60164 34194 ft 385 kts 306°
2026-05-06 04:53 44.13470 109.54712 34196 ft 389 kts 306°
2026-05-06 04:54 44.17191 109.49191 34187 ft 391 kts 306°
2026-05-06 04:54 44.20913 109.43660 34181 ft 391 kts 306°
2026-05-06 04:55 44.24623 109.38135 34190 ft 389 kts 306°
2026-05-06 04:55 44.28321 109.32614 34174 ft 388 kts 306°
2026-05-06 04:56 44.31994 109.27118 34242 ft 390 kts 307°
2026-05-06 04:56 44.35726 109.21520 34203 ft 394 kts 307°
2026-05-06 04:57 44.39478 109.15884 34204 ft 396 kts 307°
2026-05-06 04:57 44.43227 109.10243 34182 ft 397 kts 307°
2026-05-06 04:58 44.46961 109.04615 34197 ft 395 kts 308°
2026-05-06 04:58 44.50605 108.99110 34198 ft 393 kts 308°
2026-05-06 04:59 44.54312 108.93499 34202 ft 391 kts 308°
2026-05-06 04:59 44.57991 108.87915 34201 ft 392 kts 308°
2026-05-06 05:00 44.61717 108.82248 34209 ft 392 kts 308°
2026-05-06 05:00 44.65385 108.76662 34201 ft 392 kts 308°
2026-05-06 05:01 44.69086 108.71013 34213 ft 390 kts 308°
2026-05-06 05:01 44.72746 108.65415 34213 ft 389 kts 308°
2026-05-06 05:02 44.76400 108.59814 34223 ft 389 kts 308°
2026-05-06 05:02 44.80052 108.54205 34223 ft 390 kts 308°
2026-05-06 05:03 44.83723 108.48553 34231 ft 390 kts 308°
2026-05-06 05:03 44.87391 108.42898 34243 ft 391 kts 308°
2026-05-06 05:04 44.91034 108.37271 34235 ft 391 kts 308°
2026-05-06 05:04 44.94703 108.31591 34230 ft 391 kts 308°
2026-05-06 05:05 44.98360 108.25919 34233 ft 390 kts 308°
2026-05-06 05:05 45.01997 108.20262 34235 ft 389 kts 309°
2026-05-06 05:06 45.05617 108.14621 34233 ft 388 kts 308°
2026-05-06 05:06 45.09244 108.08957 34231 ft 387 kts 308°
2026-05-06 05:07 45.12840 108.03329 34272 ft 386 kts 309°
2026-05-06 05:07 45.16403 107.97739 34246 ft 391 kts 309°
2026-05-06 05:08 45.20038 107.92026 34230 ft 394 kts 309°
2026-05-06 05:08 45.23711 107.86244 34228 ft 395 kts 309°
2026-05-06 05:09 45.27388 107.80443 34225 ft 393 kts 309°
2026-05-06 05:09 45.31034 107.74680 34222 ft 391 kts 309°
2026-05-06 05:10 45.34647 107.68956 34220 ft 388 kts 309°
2026-05-06 05:10 45.38228 107.63271 34220 ft 386 kts 309°
2026-05-06 05:11 45.41813 107.57565 34240 ft 391 kts 309°
2026-05-06 05:11 45.45458 107.51752 34222 ft 393 kts 309°
2026-05-06 05:12 45.49098 107.45938 34227 ft 392 kts 309°
2026-05-06 05:12 45.52710 107.40157 34227 ft 390 kts 309°
2026-05-06 05:13 45.56321 107.34363 34228 ft 389 kts 309°
2026-05-06 05:13 45.59919 107.28577 34234 ft 390 kts 309°
2026-05-06 05:14 45.63507 107.22797 34234 ft 391 kts 309°
2026-05-06 05:14 45.67108 107.16983 34241 ft 391 kts 309°
2026-05-06 05:15 45.70742 107.11101 34247 ft 394 kts 310°
2026-05-06 05:15 45.74360 107.05237 34232 ft 394 kts 310°
2026-05-06 05:16 45.77909 106.99470 34235 ft 393 kts 310°
2026-05-06 05:16 45.81505 106.93614 34237 ft 393 kts 310°
2026-05-06 05:17 45.85114 106.87724 34243 ft 394 kts 310°
2026-05-06 05:17 45.88727 106.81818 34244 ft 394 kts 310°
2026-05-06 05:18 45.92348 106.75889 34233 ft 394 kts 310°
2026-05-06 05:18 45.95951 106.69977 34241 ft 394 kts 310°
2026-05-06 05:19 45.99560 106.64041 34246 ft 393 kts 310°
2026-05-06 05:19 46.03139 106.58140 34240 ft 392 kts 310°
2026-05-06 05:20 46.06717 106.52229 34245 ft 391 kts 309°
2026-05-06 05:20 46.10265 106.46355 34237 ft 390 kts 309°
2026-05-06 05:21 46.13826 106.40446 34245 ft 390 kts 309°
2026-05-06 05:21 46.17379 106.34536 34247 ft 390 kts 309°
2026-05-06 05:22 46.20936 106.28609 34255 ft 390 kts 309°
2026-05-06 05:22 46.24479 106.22690 34258 ft 394 kts 310°
2026-05-06 05:23 46.28063 106.16693 34225 ft 395 kts 310°
2026-05-06 05:23 46.33430 106.07684 34246 ft 392 kts 310°
2026-05-06 05:24 46.36976 106.01716 34246 ft 391 kts 310°
2026-05-06 05:24 46.40382 105.95971 34247 ft 390 kts 310°
2026-05-06 05:25 46.43900 105.90027 34255 ft 391 kts 310°
2026-05-06 05:25 46.47440 105.84032 34249 ft 392 kts 310°
2026-05-06 05:26 46.50993 105.78003 34260 ft 395 kts 310°
2026-05-06 05:26 46.54571 105.71915 34252 ft 396 kts 310°
2026-05-06 05:27 46.58143 105.65825 34252 ft 396 kts 310°
2026-05-06 05:27 46.61709 105.59731 34252 ft 395 kts 310°
2026-05-06 05:28 46.65267 105.53637 34250 ft 394 kts 310°
2026-05-06 05:28 46.68786 105.47596 34257 ft 393 kts 310°
2026-05-06 05:29 46.72314 105.41526 34258 ft 392 kts 310°
2026-05-06 05:29 46.75853 105.35424 34258 ft 392 kts 310°
2026-05-06 05:30 46.79389 105.29313 34270 ft 398 kts 310°
2026-05-06 05:30 46.82964 105.23120 34249 ft 403 kts 310°
2026-05-06 05:31 46.86592 105.16821 34247 ft 403 kts 310°
2026-05-06 05:31 46.89557 105.11663 34239 ft 395 kts 310°
2026-05-06 05:32 46.93662 105.04506 34258 ft 397 kts 310°
2026-05-06 05:32 46.96551 104.99458 34253 ft 399 kts 310°
2026-05-06 05:33 47.00102 104.93239 34251 ft 399 kts 310°
2026-05-06 05:33 47.03666 104.86983 34233 ft 399 kts 310°
2026-05-06 05:34 47.07220 104.80731 34247 ft 398 kts 310°
2026-05-06 05:34 47.10753 104.74502 34243 ft 398 kts 310°
2026-05-06 05:35 47.14294 104.68245 34235 ft 398 kts 310°
2026-05-06 05:35 47.17827 104.61986 34238 ft 397 kts 310°
2026-05-06 05:36 47.21355 104.55722 34238 ft 397 kts 310°
2026-05-06 05:36 47.24877 104.49455 34238 ft 397 kts 310°
2026-05-06 05:37 47.28394 104.43182 34239 ft 397 kts 310°
2026-05-06 05:37 47.31912 104.36891 34271 ft 397 kts 310°
2026-05-06 05:38 47.35452 104.30548 34252 ft 403 kts 309°
2026-05-06 05:38 47.38988 104.24194 34221 ft 404 kts 310°
2026-05-06 05:39 47.42551 104.17783 34231 ft 403 kts 310°
2026-05-06 05:39 47.46101 104.11379 34231 ft 402 kts 310°
2026-05-06 05:40 47.49635 104.04992 34225 ft 400 kts 309°
2026-05-06 05:40 47.53075 103.98756 34220 ft 399 kts 309°
2026-05-06 05:41 47.56577 103.92393 34207 ft 398 kts 309°
2026-05-06 05:41 47.60055 103.86057 34238 ft 397 kts 309°
2026-05-06 05:42 47.63563 103.79654 34223 ft 402 kts 309°
2026-05-06 05:42 47.67074 103.73230 34218 ft 404 kts 309°
2026-05-06 05:43 47.70613 103.66738 34205 ft 404 kts 309°
2026-05-06 05:43 47.74142 103.60248 34202 ft 404 kts 309°
2026-05-06 05:44 47.77653 103.53777 34188 ft 402 kts 309°
2026-05-06 05:44 47.81156 103.47305 34190 ft 399 kts 309°
2026-05-06 05:45 47.84616 103.40896 34185 ft 397 kts 309°
2026-05-06 05:45 47.88059 103.34505 34201 ft 397 kts 309°
2026-05-06 05:46 47.91545 103.28020 34207 ft 406 kts 309°
2026-05-06 05:46 47.95082 103.21424 34181 ft 405 kts 309°
2026-05-06 05:47 47.98580 103.14884 34187 ft 403 kts 309°
2026-05-06 05:47 48.02072 103.08338 34192 ft 401 kts 309°
2026-05-06 05:48 48.05528 103.01845 34184 ft 400 kts 309°
2026-05-06 05:48 48.08908 102.95477 34191 ft 398 kts 309°
2026-05-06 05:49 48.12347 102.88985 34186 ft 398 kts 309°
2026-05-06 05:49 48.15757 102.82530 34190 ft 399 kts 309°
2026-05-06 05:50 48.19236 102.75930 34194 ft 405 kts 309°
2026-05-06 05:50 48.22725 102.69295 34187 ft 406 kts 309°
2026-05-06 05:51 48.26225 102.62620 34193 ft 406 kts 309°
2026-05-06 05:51 48.29704 102.55969 34187 ft 405 kts 309°
2026-05-06 05:52 48.33198 102.49274 34178 ft 405 kts 309°
2026-05-06 05:52 48.36648 102.42647 34175 ft 403 kts 309°
2026-05-06 05:53 48.40087 102.36026 34177 ft 402 kts 309°
2026-05-06 05:53 48.43531 102.29377 34184 ft 401 kts 309°
2026-05-06 05:54 48.46953 102.22756 34177 ft 401 kts 309°
2026-05-06 05:54 48.50366 102.16134 34161 ft 402 kts 309°
2026-05-06 05:55 48.53818 102.09421 34177 ft 403 kts 309°
2026-05-06 05:55 48.57246 102.02738 34176 ft 404 kts 309°
2026-05-06 05:56 48.60601 101.96180 34180 ft 405 kts 309°
2026-05-06 05:56 48.64040 101.89443 34172 ft 405 kts 309°
2026-05-06 05:57 48.67483 101.82677 34173 ft 405 kts 309°
2026-05-06 05:57 48.70910 101.75930 34163 ft 404 kts 310°
2026-05-06 05:58 48.74310 101.69220 34176 ft 402 kts 310°
2026-05-06 05:58 48.77719 101.62475 34166 ft 401 kts 310°
2026-05-06 05:59 48.81098 101.55771 34169 ft 399 kts 309°
2026-05-06 05:59 48.84442 101.49121 34171 ft 398 kts 309°
2026-05-06 06:00 48.87796 101.42434 34158 ft 397 kts 310°
2026-05-06 06:00 48.91133 101.35760 34185 ft 396 kts 310°
2026-05-06 06:01 48.94455 101.29102 34184 ft 396 kts 310°
2026-05-06 06:01 48.97793 101.22397 34180 ft 397 kts 310°
2026-05-06 06:02 49.01127 101.15682 34167 ft 398 kts 310°
2026-05-06 06:02 49.04457 101.08958 34178 ft 398 kts 310°
2026-05-06 06:03 49.07800 101.02186 34168 ft 398 kts 310°
2026-05-06 06:03 49.11056 100.95581 34172 ft 398 kts 310°
2026-05-06 06:04 49.14370 100.88840 34163 ft 398 kts 310°
2026-05-06 06:04 49.17673 100.82102 34154 ft 397 kts 310°
2026-05-06 06:05 49.20983 100.75333 34152 ft 396 kts 310°
2026-05-06 06:05 49.24268 100.68599 34119 ft 395 kts 311°
2026-05-06 06:06 49.27541 100.61868 34164 ft 394 kts 311°
2026-05-06 06:06 49.30813 100.55130 34167 ft 392 kts 311°
2026-05-06 06:07 49.34056 100.48429 34164 ft 391 kts 311°
2026-05-06 06:07 49.37286 100.41742 34165 ft 390 kts 311°
2026-05-06 06:08 49.40506 100.35059 34173 ft 390 kts 311°
2026-05-06 06:08 49.43736 100.28337 34150 ft 390 kts 311°
2026-05-06 06:09 49.46954 100.21622 34156 ft 391 kts 311°
2026-05-06 06:09 49.50196 100.14841 34162 ft 392 kts 311°
2026-05-06 06:10 49.53403 100.08112 34166 ft 392 kts 311°
2026-05-06 06:10 49.56631 100.01325 34155 ft 392 kts 311°
2026-05-06 06:11 49.59786 99.94675 34151 ft 392 kts 311°
2026-05-06 06:11 49.62970 99.87949 34158 ft 389 kts 311°
2026-05-06 06:12 49.66147 99.81220 34157 ft 386 kts 311°
2026-05-06 06:12 49.69286 99.74555 34143 ft 384 kts 311°
2026-05-06 06:13 49.72433 99.67857 34162 ft 383 kts 311°
2026-05-06 06:13 49.75548 99.61209 34167 ft 381 kts 311°
2026-05-06 06:14 49.78641 99.54590 34169 ft 381 kts 311°
2026-05-06 06:14 49.81750 99.47928 34160 ft 382 kts 311°
2026-05-06 06:15 49.84849 99.41262 34159 ft 383 kts 311°
2026-05-06 06:15 49.87974 99.34525 34157 ft 384 kts 311°
2026-05-06 06:16 49.91080 99.27810 34148 ft 384 kts 311°
2026-05-06 06:16 49.94183 99.21086 34154 ft 383 kts 311°
2026-05-06 06:17 49.97294 99.14326 34154 ft 383 kts 311°
2026-05-06 06:17 50.00352 99.07660 34133 ft 376 kts 312°
2026-05-06 06:18 50.02855 99.02190 34139 ft 372 kts 312°
2026-05-06 06:18 50.05776 98.95807 34152 ft 372 kts 312°
2026-05-06 06:19 50.08789 98.89203 34181 ft 373 kts 312°
2026-05-06 06:19 50.11796 98.82596 34156 ft 376 kts 312°
2026-05-06 06:20 50.14829 98.75911 34141 ft 377 kts 312°
2026-05-06 06:20 50.17853 98.69225 34135 ft 378 kts 312°
2026-05-06 06:21 50.20877 98.62524 34157 ft 378 kts 312°
2026-05-06 06:21 50.23902 98.55806 34156 ft 378 kts 312°
2026-05-06 06:22 50.26898 98.49130 34154 ft 377 kts 312°
2026-05-06 06:22 50.29917 98.42389 34160 ft 376 kts 312°
2026-05-06 06:23 50.32901 98.35713 34183 ft 375 kts 312°
2026-05-06 06:23 50.35886 98.29015 34159 ft 374 kts 312°
2026-05-06 06:24 50.38855 98.22324 34163 ft 374 kts 312°
2026-05-06 06:24 50.41806 98.15641 34151 ft 374 kts 312°
2026-05-06 06:25 50.44759 98.08941 34145 ft 372 kts 312°
2026-05-06 06:26 50.49081 97.99109 34134 ft 370 kts 312°
2026-05-06 06:26 50.52002 97.92444 34155 ft 370 kts 311°
2026-05-06 06:27 50.54908 97.85794 34131 ft 370 kts 312°
2026-05-06 06:27 50.57840 97.79068 34161 ft 373 kts 311°
2026-05-06 06:28 50.60787 97.72296 34124 ft 377 kts 311°
2026-05-06 06:28 50.63754 97.65457 34130 ft 380 kts 311°
2026-05-06 06:29 50.66740 97.58558 34130 ft 380 kts 311°
2026-05-06 06:29 50.69700 97.51697 34126 ft 379 kts 311°
2026-05-06 06:30 50.72645 97.44852 34123 ft 377 kts 311°
2026-05-06 06:30 50.75577 97.38019 34122 ft 376 kts 311°
2026-05-06 06:31 50.78505 97.31184 34093 ft 375 kts 311°
2026-05-06 06:31 50.81421 97.24356 34116 ft 373 kts 311°
2026-05-06 06:32 50.84311 97.17571 34123 ft 373 kts 311°
2026-05-06 06:32 50.87185 97.10808 34128 ft 375 kts 311°
2026-05-06 06:33 50.90109 97.03912 34105 ft 377 kts 310°
2026-05-06 06:33 50.92983 96.97116 34126 ft 380 kts 310°
2026-05-06 06:34 50.95930 96.90126 34119 ft 383 kts 310°
2026-05-06 06:34 50.98881 96.83103 34127 ft 384 kts 310°
2026-05-06 06:35 51.01830 96.76067 34115 ft 385 kts 310°
2026-05-06 06:35 51.04794 96.68972 34120 ft 384 kts 310°
2026-05-06 06:36 51.07741 96.61898 34083 ft 382 kts 309°
2026-05-06 06:36 51.10662 96.54872 34121 ft 381 kts 309°
2026-05-06 06:37 51.13566 96.47876 34109 ft 381 kts 309°
2026-05-06 06:37 51.16490 96.40807 34130 ft 381 kts 309°
2026-05-06 06:38 51.19407 96.33735 34135 ft 382 kts 309°
2026-05-06 06:38 51.22315 96.26666 34133 ft 384 kts 309°
2026-05-06 06:39 51.25259 96.19491 34080 ft 385 kts 308°
2026-05-06 06:39 51.28173 96.12362 34114 ft 385 kts 308°
2026-05-06 06:40 51.31094 96.05203 34126 ft 385 kts 308°
2026-05-06 06:40 51.33953 95.98177 34109 ft 386 kts 308°
2026-05-06 06:41 51.36877 95.90972 34119 ft 385 kts 308°
2026-05-06 06:41 51.39777 95.83798 34130 ft 384 kts 308°
2026-05-06 06:42 51.42672 95.76628 34118 ft 384 kts 308°
2026-05-06 06:42 51.45559 95.69453 34114 ft 383 kts 307°
2026-05-06 06:43 51.48461 95.62217 34113 ft 385 kts 307°
2026-05-06 06:43 51.51353 95.54988 34118 ft 386 kts 307°
2026-05-06 06:44 51.54247 95.47734 34128 ft 387 kts 307°
2026-05-06 06:44 51.57151 95.40436 34123 ft 388 kts 307°
2026-05-06 06:45 51.60068 95.33084 34125 ft 389 kts 307°
2026-05-06 06:45 51.62962 95.25768 34113 ft 390 kts 307°
2026-05-06 06:46 51.65861 95.18416 34116 ft 389 kts 306°
2026-05-06 06:46 51.68773 95.11009 34111 ft 388 kts 306°
2026-05-06 06:47 51.71645 95.03684 34117 ft 388 kts 306°
2026-05-06 06:47 51.74446 94.96525 34121 ft 386 kts 306°
2026-05-06 06:48 51.77292 94.89221 34126 ft 385 kts 306°
2026-05-06 06:48 51.80145 94.81889 34097 ft 384 kts 306°
2026-05-06 06:49 51.82982 94.74577 34141 ft 386 kts 306°
2026-05-06 06:49 51.85839 94.67187 34128 ft 389 kts 306°
2026-05-06 06:50 51.88726 94.59699 34116 ft 393 kts 305°
2026-05-06 06:50 51.91614 94.52186 34124 ft 394 kts 305°
2026-05-06 06:51 51.94483 94.44697 34125 ft 394 kts 305°
2026-05-06 06:51 51.97378 94.37118 34133 ft 393 kts 305°
2026-05-06 06:52 52.00226 94.29644 34108 ft 391 kts 305°
2026-05-06 06:52 52.03078 94.22135 34120 ft 388 kts 305°
2026-05-06 06:53 52.05887 94.14715 34113 ft 386 kts 305°
2026-05-06 06:53 52.08689 94.07297 34109 ft 384 kts 305°
2026-05-06 06:54 52.11457 93.99949 34119 ft 384 kts 304°
2026-05-06 06:54 52.14298 93.92784 34089 ft 383 kts 310°
2026-05-06 06:55 52.17840 93.86309 34112 ft 383 kts 318°
2026-05-06 06:55 52.21837 93.80468 34116 ft 387 kts 319°
2026-05-06 06:56 52.25864 93.74677 34126 ft 390 kts 319°
2026-05-06 06:56 52.29951 93.68758 34102 ft 391 kts 319°
2026-05-06 06:57 52.33999 93.62853 34113 ft 391 kts 319°
2026-05-06 06:57 52.38053 93.56911 34101 ft 389 kts 319°
2026-05-06 06:58 52.42050 93.51036 34101 ft 386 kts 319°
2026-05-06 06:58 52.46009 93.45204 34085 ft 383 kts 318°
2026-05-06 06:59 52.49971 93.39352 34121 ft 383 kts 318°
2026-05-06 06:59 52.53951 93.33455 34125 ft 386 kts 318°
2026-05-06 07:00 52.57962 93.27502 34125 ft 389 kts 318°
2026-05-06 07:00 52.61996 93.21499 34126 ft 392 kts 318°
2026-05-06 07:01 52.66042 93.15461 34124 ft 393 kts 318°
2026-05-06 07:01 52.70085 93.09411 34119 ft 394 kts 318°
2026-05-06 07:02 52.74133 93.03338 34127 ft 393 kts 317°
2026-05-06 07:02 52.78066 92.97427 34108 ft 390 kts 317°
2026-05-06 07:03 52.82076 92.91375 34101 ft 388 kts 317°
2026-05-06 07:03 52.86062 92.85346 34112 ft 387 kts 317°
2026-05-06 07:04 52.90005 92.79370 34110 ft 386 kts 317°
2026-05-06 07:04 52.93983 92.73325 34101 ft 387 kts 317°
2026-05-06 07:05 52.97955 92.67273 34122 ft 388 kts 317°
2026-05-06 07:05 53.01919 92.61218 34117 ft 389 kts 317°
2026-05-06 07:06 53.05907 92.55106 34109 ft 390 kts 317°
2026-05-06 07:06 53.09899 92.48976 34096 ft 391 kts 316°
2026-05-06 07:07 53.13233 92.43844 34093 ft 391 kts 316°
2026-05-06 07:07 53.17878 92.36673 34098 ft 391 kts 316°
2026-05-06 07:08 53.21199 92.31532 34098 ft 392 kts 316°
2026-05-06 07:08 53.25200 92.25324 34106 ft 392 kts 316°
2026-05-06 07:09 53.29186 92.19122 34094 ft 393 kts 316°
2026-05-06 07:09 53.33179 92.12892 34089 ft 393 kts 316°
2026-05-06 07:10 53.37161 92.06665 34092 ft 392 kts 316°
2026-05-06 07:10 53.40993 92.00187 34086 ft 391 kts 312°
2026-05-06 07:11 53.44600 91.93636 34105 ft 392 kts 312°
2026-05-06 07:11 53.48317 91.86899 34098 ft 394 kts 312°
2026-05-06 07:12 53.52067 91.80109 34090 ft 396 kts 311°
2026-05-06 07:12 53.55778 91.73283 34092 ft 395 kts 311°
2026-05-06 07:13 53.59459 91.66473 34079 ft 394 kts 311°
2026-05-06 07:13 53.63131 91.59666 34073 ft 392 kts 311°
2026-05-06 07:14 53.66794 91.52863 34060 ft 390 kts 311°
2026-05-06 07:14 53.70418 91.46116 34070 ft 389 kts 311°
2026-05-06 07:15 53.74055 91.39304 34085 ft 389 kts 309°
2026-05-06 07:15 53.77298 91.32006 34084 ft 389 kts 305°
2026-05-06 07:16 53.80431 91.24562 34076 ft 390 kts 305°
2026-05-06 07:16 53.83582 91.17070 34074 ft 391 kts 305°
2026-05-06 07:17 53.86728 91.09590 34075 ft 391 kts 305°
2026-05-06 07:17 53.89901 91.02034 34048 ft 392 kts 304°
2026-05-06 07:18 53.92965 90.94721 34055 ft 392 kts 304°
2026-05-06 07:18 53.96139 90.87121 34059 ft 393 kts 304°
2026-05-06 07:19 53.99291 90.79552 34043 ft 393 kts 304°
2026-05-06 07:19 54.02456 90.71927 34056 ft 395 kts 304°
2026-05-06 07:20 54.05603 90.64322 34050 ft 396 kts 304°
2026-05-06 07:20 54.08790 90.56598 34030 ft 396 kts 304°
2026-05-06 07:21 54.11923 90.48984 34022 ft 395 kts 303°
2026-05-06 07:21 54.15074 90.41299 34024 ft 395 kts 303°
2026-05-06 07:22 54.18217 90.33609 34022 ft 394 kts 303°
2026-05-06 07:22 54.21356 90.25910 34023 ft 394 kts 303°
2026-05-06 07:23 54.24482 90.18215 34014 ft 395 kts 303°
2026-05-06 07:23 54.27616 90.10477 34017 ft 394 kts 303°
2026-05-06 07:24 54.30708 90.02821 34010 ft 392 kts 303°
2026-05-06 07:24 54.33733 89.95310 33989 ft 391 kts 302°
2026-05-06 07:25 54.36801 89.87665 33992 ft 390 kts 302°
2026-05-06 07:25 54.39879 89.79969 34002 ft 391 kts 302°
2026-05-06 07:26 54.42964 89.72233 34008 ft 392 kts 302°
2026-05-06 07:26 54.46038 89.64502 34008 ft 394 kts 302°
2026-05-06 07:27 54.49140 89.56675 33998 ft 397 kts 302°
2026-05-06 07:27 54.52243 89.48826 33995 ft 398 kts 302°
2026-05-06 07:28 54.55342 89.40961 33987 ft 396 kts 302°
2026-05-06 07:28 54.59943 89.29233 33970 ft 392 kts 302°
2026-05-06 07:29 54.62976 89.21473 33979 ft 390 kts 302°
2026-05-06 07:29 54.66010 89.13684 33967 ft 388 kts 302°
2026-05-06 07:30 54.69016 89.05943 33972 ft 388 kts 301°
2026-05-06 07:30 54.71941 88.98385 33980 ft 389 kts 301°
2026-05-06 07:31 54.74959 88.90565 33981 ft 392 kts 301°
2026-05-06 07:31 54.77983 88.82704 33980 ft 394 kts 301°
2026-05-06 07:32 54.81028 88.74768 33981 ft 396 kts 301°
2026-05-06 07:32 54.84091 88.66769 33972 ft 398 kts 301°
2026-05-06 07:33 54.87146 88.58781 33966 ft 397 kts 301°
2026-05-06 07:33 54.90181 88.50819 33965 ft 396 kts 300°
2026-05-06 07:34 54.93223 88.42808 33961 ft 395 kts 300°
2026-05-06 07:34 54.96243 88.34830 33956 ft 394 kts 300°
2026-05-06 07:35 54.99247 88.26866 33962 ft 394 kts 300°
2026-05-06 07:35 55.02235 88.18920 33965 ft 393 kts 300°
2026-05-06 07:36 55.05218 88.10960 33973 ft 393 kts 300°
2026-05-06 07:36 55.08219 88.02925 33951 ft 393 kts 299°
2026-05-06 07:37 55.11138 87.95087 33968 ft 394 kts 299°
2026-05-06 07:37 55.14105 87.87094 33947 ft 395 kts 299°
2026-05-06 07:38 55.17095 87.79014 33947 ft 395 kts 299°
2026-05-06 07:38 55.20073 87.70925 33960 ft 395 kts 299°
2026-05-06 07:39 55.23040 87.62828 33949 ft 395 kts 299°
2026-05-06 07:39 55.25983 87.54770 33959 ft 395 kts 299°
2026-05-06 07:40 55.28945 87.46632 33955 ft 393 kts 299°
2026-05-06 07:40 55.31879 87.38546 33949 ft 391 kts 299°
2026-05-06 07:41 55.34779 87.30529 33955 ft 388 kts 299°
2026-05-06 07:41 55.37659 87.22539 33956 ft 386 kts 298°
2026-05-06 07:42 55.40513 87.14595 33959 ft 386 kts 298°
2026-05-06 07:42 55.43392 87.06552 33964 ft 387 kts 298°
2026-05-06 07:43 55.46180 86.98740 33965 ft 389 kts 298°
2026-05-06 07:43 55.49057 86.90654 33987 ft 390 kts 298°
2026-05-06 07:44 55.51945 86.82510 33956 ft 392 kts 298°
2026-05-06 07:44 55.54824 86.74364 33955 ft 391 kts 298°
2026-05-06 07:45 55.57690 86.66230 33951 ft 390 kts 298°
2026-05-06 07:45 55.60555 86.58071 33945 ft 389 kts 298°
2026-05-06 07:46 55.63407 86.49918 33942 ft 389 kts 297°
2026-05-06 07:46 55.66253 86.41757 33941 ft 388 kts 297°
2026-05-06 07:47 55.69077 86.33631 33946 ft 389 kts 297°
2026-05-06 07:47 55.71914 86.25436 33944 ft 392 kts 297°
2026-05-06 07:48 55.74775 86.17149 33940 ft 393 kts 297°
2026-05-06 07:48 55.77615 86.08900 33930 ft 392 kts 297°
2026-05-06 07:49 55.80454 86.00613 33936 ft 392 kts 297°
2026-05-06 07:49 55.83211 85.92521 33913 ft 392 kts 296°
2026-05-06 07:50 55.86037 85.84198 33926 ft 394 kts 296°
2026-05-06 07:50 55.88871 85.75829 33926 ft 397 kts 296°
2026-05-06 07:51 55.91707 85.67410 33922 ft 398 kts 297°
2026-05-06 07:51 55.94537 85.58998 33909 ft 392 kts 296°
2026-05-06 07:52 55.97296 85.50645 33919 ft 386 kts 295°
2026-05-06 07:52 55.99973 85.42301 33938 ft 391 kts 295°
2026-05-06 07:53 56.02682 85.33807 33914 ft 399 kts 295°
2026-05-06 07:53 56.05435 85.25188 33900 ft 398 kts 295°
2026-05-06 07:54 56.07709 85.18057 33900 ft 396 kts 295°
2026-05-06 07:54 56.10883 85.08067 33894 ft 394 kts 295°
2026-05-06 07:55 56.13144 85.00923 33889 ft 393 kts 294°
2026-05-06 07:55 56.15753 84.92651 33890 ft 392 kts 294°
2026-05-06 07:56 56.18432 84.84125 33905 ft 392 kts 294°
2026-05-06 07:56 56.21107 84.75580 33925 ft 393 kts 294°
2026-05-06 07:57 56.23786 84.66991 33897 ft 395 kts 294°
2026-05-06 07:57 56.26471 84.58351 33888 ft 397 kts 294°
2026-05-06 07:58 56.29161 84.49666 33891 ft 399 kts 294°
2026-05-06 07:58 56.31864 84.40911 33883 ft 400 kts 294°
2026-05-06 07:59 56.34561 84.32141 33883 ft 400 kts 293°
2026-05-06 07:59 56.37253 84.23357 33891 ft 398 kts 293°
2026-05-06 08:00 56.39923 84.14606 33881 ft 398 kts 293°
2026-05-06 08:00 56.42574 84.05892 33887 ft 397 kts 293°
2026-05-06 08:01 56.45175 83.97305 33878 ft 397 kts 293°
2026-05-06 08:01 56.47813 83.88565 33884 ft 397 kts 293°
2026-05-06 08:02 56.50444 83.79816 33880 ft 397 kts 292°
2026-05-06 08:02 56.53070 83.71050 33877 ft 397 kts 292°
2026-05-06 08:03 56.55701 83.62235 33877 ft 397 kts 292°
2026-05-06 08:03 56.58331 83.53392 33890 ft 398 kts 292°
2026-05-06 08:04 56.60951 83.44545 33876 ft 399 kts 292°
2026-05-06 08:04 56.63580 83.35638 33870 ft 399 kts 292°
2026-05-06 08:05 56.66189 83.26765 33908 ft 399 kts 292°
2026-05-06 08:05 56.68804 83.17831 33875 ft 402 kts 292°
2026-05-06 08:06 56.71415 83.08885 33871 ft 402 kts 292°
2026-05-06 08:06 56.74021 82.99920 33866 ft 401 kts 292°
2026-05-06 08:07 56.76586 82.91061 33876 ft 403 kts 292°
2026-05-06 08:07 56.79186 82.82044 33873 ft 404 kts 292°
2026-05-06 08:08 56.81801 82.72941 33875 ft 405 kts 292°
2026-05-06 08:08 56.84403 82.63845 33871 ft 406 kts 292°
2026-05-06 08:09 56.87018 82.54671 33870 ft 406 kts 292°
2026-05-06 08:09 56.89609 82.45541 33866 ft 408 kts 292°
2026-05-06 08:10 56.92222 82.36303 33876 ft 408 kts 292°
2026-05-06 08:10 56.94837 82.27017 33877 ft 411 kts 293°
2026-05-06 08:11 56.97443 82.17724 33875 ft 412 kts 293°
2026-05-06 08:11 57.00072 82.08317 33875 ft 414 kts 293°
2026-05-06 08:12 57.02800 81.99343 33872 ft 417 kts 296°
2026-05-06 08:12 57.05780 81.90149 33877 ft 418 kts 296°
2026-05-06 08:13 57.08741 81.80993 33873 ft 418 kts 296°
2026-05-06 08:13 57.11699 81.71761 33896 ft 417 kts 296°
2026-05-06 08:14 57.14625 81.62560 33883 ft 417 kts 297°
2026-05-06 08:14 57.17538 81.53353 33882 ft 417 kts 297°
2026-05-06 08:15 57.20467 81.44058 33888 ft 418 kts 297°
2026-05-06 08:15 57.23393 81.34741 33889 ft 420 kts 297°
2026-05-06 08:16 57.26301 81.25443 33883 ft 421 kts 297°
2026-05-06 08:16 57.29241 81.16011 33886 ft 422 kts 297°
2026-05-06 08:17 57.32151 81.06633 33884 ft 422 kts 297°
2026-05-06 08:17 57.35017 80.97362 33903 ft 424 kts 297°
2026-05-06 08:18 57.37948 80.87840 33894 ft 426 kts 297°
2026-05-06 08:18 57.40860 80.78345 33872 ft 425 kts 297°
2026-05-06 08:19 57.43772 80.68809 33891 ft 424 kts 297°
2026-05-06 08:19 57.46685 80.59229 33888 ft 426 kts 297°
2026-05-06 08:20 57.49587 80.49652 33893 ft 424 kts 297°
2026-05-06 08:20 57.52464 80.40114 33894 ft 422 kts 297°
2026-05-06 08:21 57.55322 80.30604 33894 ft 421 kts 298°
2026-05-06 08:21 57.58191 80.21015 33907 ft 422 kts 298°
2026-05-06 08:22 57.61040 80.11449 33900 ft 424 kts 298°
2026-05-06 08:22 57.63912 80.01772 33910 ft 427 kts 298°
2026-05-06 08:23 57.66710 79.92302 33899 ft 429 kts 298°
2026-05-06 08:23 57.69586 79.82531 33884 ft 431 kts 298°
2026-05-06 08:24 57.72466 79.72710 33886 ft 431 kts 298°
2026-05-06 08:24 57.75316 79.62866 33894 ft 430 kts 298°
2026-05-06 08:25 57.78149 79.52951 33900 ft 429 kts 298°
2026-05-06 08:25 57.80952 79.43102 33892 ft 427 kts 298°
2026-05-06 08:26 57.83717 79.33352 33892 ft 425 kts 298°
2026-05-06 08:26 57.86495 79.23521 33906 ft 424 kts 298°
2026-05-06 08:27 57.89241 79.13764 33910 ft 423 kts 298°
2026-05-06 08:27 57.91995 79.03938 33895 ft 424 kts 298°
2026-05-06 08:28 57.94673 78.94340 33885 ft 425 kts 298°
2026-05-06 08:28 57.97412 78.84482 33909 ft 426 kts 298°
2026-05-06 08:29 58.00155 78.74566 33913 ft 427 kts 298°
2026-05-06 08:29 58.02887 78.64649 33914 ft 428 kts 298°
2026-05-06 08:30 58.05625 78.54668 33914 ft 428 kts 298°
2026-05-06 08:30 58.08351 78.44683 33913 ft 427 kts 298°
2026-05-06 08:31 58.11065 78.34698 33913 ft 427 kts 298°
2026-05-06 08:31 58.13765 78.24722 33907 ft 426 kts 298°
2026-05-06 08:32 58.16448 78.14766 33900 ft 424 kts 298°
2026-05-06 08:32 58.19107 78.04853 33907 ft 422 kts 297°
2026-05-06 08:33 58.21696 77.95164 33910 ft 421 kts 297°
2026-05-06 08:33 58.24340 77.85224 33916 ft 420 kts 297°
2026-05-06 08:34 58.28246 77.70456 33904 ft 418 kts 297°
2026-05-06 08:35 58.30850 77.60556 33913 ft 418 kts 297°
2026-05-06 08:35 58.33444 77.50653 33912 ft 419 kts 297°
2026-05-06 08:36 58.36031 77.40732 33908 ft 418 kts 297°
2026-05-06 08:36 58.38618 77.30766 33910 ft 419 kts 297°
2026-05-06 08:37 58.41182 77.20845 33931 ft 418 kts 296°
2026-05-06 08:37 58.43760 77.10826 33916 ft 417 kts 296°
2026-05-06 08:38 58.46301 77.00903 33895 ft 416 kts 296°
2026-05-06 08:38 58.48762 76.91253 33904 ft 414 kts 296°
2026-05-06 08:39 58.51270 76.81376 33902 ft 412 kts 296°
2026-05-06 08:39 58.53763 76.71509 33908 ft 412 kts 296°
2026-05-06 08:40 58.56249 76.61634 33911 ft 412 kts 296°
2026-05-06 08:40 58.58785 76.51784 33914 ft 412 kts 300°
2026-05-06 08:41 58.61998 76.42709 33924 ft 413 kts 306°
2026-05-06 08:41 58.65434 76.33872 33916 ft 414 kts 306°
2026-05-06 08:42 58.68310 76.26434 33923 ft 415 kts 306°
2026-05-06 08:42 58.71717 76.17542 33921 ft 415 kts 306°
2026-05-06 08:43 58.75136 76.08561 33926 ft 416 kts 306°
2026-05-06 08:43 58.78473 75.99752 33913 ft 416 kts 306°
2026-05-06 08:44 58.81853 75.90799 33913 ft 415 kts 306°
2026-05-06 08:44 58.85249 75.81767 33926 ft 413 kts 305°
2026-05-06 08:45 58.88589 75.72853 33925 ft 411 kts 305°
2026-05-06 08:45 58.91939 75.63878 33929 ft 409 kts 305°
2026-05-06 08:46 58.95247 75.54981 33928 ft 408 kts 305°
2026-05-06 08:46 58.98559 75.46040 33926 ft 408 kts 304°
2026-05-06 08:47 59.01847 75.37130 33921 ft 409 kts 304°
2026-05-06 08:47 59.05166 75.28100 33922 ft 410 kts 304°
2026-05-06 08:48 59.08458 75.19111 33916 ft 411 kts 304°
2026-05-06 08:48 59.11776 75.10017 33930 ft 411 kts 304°
2026-05-06 08:49 59.15082 75.00918 33933 ft 411 kts 304°
2026-05-06 08:49 59.18288 74.92065 33907 ft 410 kts 304°
2026-05-06 08:50 59.21557 74.82999 33910 ft 409 kts 304°
2026-05-06 08:50 59.24822 74.73912 33926 ft 408 kts 304°
2026-05-06 08:51 59.28065 74.64848 33938 ft 407 kts 303°
2026-05-06 08:51 59.31305 74.55765 33914 ft 406 kts 303°
2026-05-06 08:52 59.34267 74.46365 33910 ft 405 kts 295°
2026-05-06 08:52 59.36599 74.36354 33910 ft 406 kts 294°
2026-05-06 08:53 59.38925 74.26222 33920 ft 406 kts 293°
2026-05-06 08:53 59.41243 74.16133 33925 ft 407 kts 293°
2026-05-06 08:54 59.43570 74.06002 33899 ft 407 kts 293°
2026-05-06 08:54 59.45830 73.96135 33898 ft 407 kts 293°
2026-05-06 08:55 59.48153 73.85946 33906 ft 407 kts 293°
2026-05-06 08:55 59.50464 73.75762 33905 ft 407 kts 293°
2026-05-06 08:56 59.52760 73.65591 33898 ft 408 kts 293°
2026-05-06 08:56 59.55063 73.55346 33898 ft 408 kts 293°
2026-05-06 08:57 59.57349 73.45123 33908 ft 407 kts 292°
2026-05-06 08:57 59.59622 73.34909 33887 ft 407 kts 292°
2026-05-06 08:58 59.61888 73.24680 33887 ft 406 kts 292°
2026-05-06 08:58 59.64136 73.14480 33906 ft 405 kts 292°
2026-05-06 08:59 59.66386 73.04219 33889 ft 405 kts 292°
2026-05-06 08:59 59.68562 72.94249 33880 ft 406 kts 292°
2026-05-06 09:00 59.70796 72.83962 33883 ft 407 kts 292°
2026-05-06 09:00 59.73034 72.73606 33882 ft 408 kts 292°
2026-05-06 09:01 59.75252 72.63298 33872 ft 409 kts 292°
2026-05-06 09:01 59.77486 72.52855 33866 ft 409 kts 291°
2026-05-06 09:02 59.79700 72.42460 33868 ft 409 kts 291°
2026-05-06 09:02 59.81897 72.32090 33854 ft 409 kts 291°
2026-05-06 09:03 59.84106 72.21607 33862 ft 408 kts 291°
2026-05-06 09:03 59.86277 72.11256 33852 ft 408 kts 291°
2026-05-06 09:04 59.88461 72.00789 33851 ft 408 kts 291°
2026-05-06 09:04 59.90582 71.90574 33846 ft 408 kts 291°
2026-05-06 09:05 59.92728 71.80179 33846 ft 408 kts 291°
2026-05-06 09:05 59.94889 71.69663 33838 ft 408 kts 291°
2026-05-06 09:06 59.97018 71.59249 33831 ft 408 kts 291°
2026-05-06 09:06 59.99159 71.48725 33836 ft 408 kts 291°
2026-05-06 09:07 60.01285 71.38213 33836 ft 408 kts 291°
2026-05-06 09:07 60.03407 71.27671 33836 ft 409 kts 290°
2026-05-06 09:08 60.05511 71.17163 33827 ft 409 kts 290°
2026-05-06 09:08 60.07620 71.06573 33822 ft 409 kts 290°
2026-05-06 09:09 60.09667 70.96241 33816 ft 410 kts 290°
2026-05-06 09:09 60.11749 70.85676 33817 ft 410 kts 290°
2026-05-06 09:10 60.13838 70.75018 33818 ft 410 kts 290°
2026-05-06 09:10 60.15912 70.64380 33803 ft 410 kts 290°
2026-05-06 09:11 60.17987 70.53682 33806 ft 410 kts 290°
2026-05-06 09:11 60.20053 70.42969 33809 ft 411 kts 290°
2026-05-06 09:12 60.22106 70.32269 33802 ft 411 kts 290°
2026-05-06 09:12 60.24153 70.21537 33786 ft 412 kts 289°
2026-05-06 09:13 60.26203 70.10745 33796 ft 412 kts 289°
2026-05-06 09:13 60.28232 69.99975 33787 ft 412 kts 289°
2026-05-06 09:14 60.30207 69.89420 33779 ft 411 kts 289°
2026-05-06 09:14 60.32218 69.78615 33776 ft 411 kts 289°
2026-05-06 09:15 60.34208 69.67876 33776 ft 410 kts 289°
2026-05-06 09:15 60.36206 69.57037 33787 ft 410 kts 289°
2026-05-06 09:16 60.38191 69.46247 33774 ft 411 kts 289°
2026-05-06 09:16 60.40180 69.35373 33770 ft 412 kts 288°
2026-05-06 09:17 60.42158 69.24495 33759 ft 411 kts 288°
2026-05-06 09:17 60.44120 69.13642 33767 ft 410 kts 288°
2026-05-06 09:18 60.46075 69.02765 33760 ft 409 kts 288°
2026-05-06 09:18 60.47918 68.92452 33757 ft 408 kts 288°
2026-05-06 09:19 60.49843 68.81628 33760 ft 407 kts 288°
2026-05-06 09:19 60.51763 68.70771 33758 ft 407 kts 288°
2026-05-06 09:20 60.53664 68.59965 33763 ft 406 kts 288°
2026-05-06 09:20 60.55554 68.49156 33752 ft 406 kts 288°
2026-05-06 09:21 60.57428 68.38379 33757 ft 407 kts 288°
2026-05-06 09:21 60.59303 68.27535 33751 ft 407 kts 288°
2026-05-06 09:22 60.61177 68.16634 33750 ft 408 kts 287°
2026-05-06 09:22 60.63046 68.05695 33751 ft 408 kts 287°
2026-05-06 09:23 60.64850 67.95074 33752 ft 408 kts 287°
2026-05-06 09:23 60.66704 67.84092 33752 ft 408 kts 287°
2026-05-06 09:24 60.68541 67.73142 33754 ft 409 kts 287°
2026-05-06 09:24 60.70366 67.62215 33759 ft 408 kts 286°
2026-05-06 09:25 60.72189 67.51220 33745 ft 407 kts 286°
2026-05-06 09:25 60.73990 67.40237 33742 ft 405 kts 286°
2026-05-06 09:26 60.75752 67.29413 33743 ft 403 kts 286°
2026-05-06 09:26 60.77509 67.18552 33745 ft 401 kts 286°
2026-05-06 09:27 60.79260 67.07670 33751 ft 400 kts 286°
2026-05-06 09:27 60.80949 66.97110 33747 ft 400 kts 286°
2026-05-06 09:28 60.82672 66.86276 33756 ft 401 kts 285°
2026-05-06 09:28 60.84388 66.75414 33768 ft 403 kts 285°
2026-05-06 09:29 60.86108 66.64461 33752 ft 404 kts 285°
2026-05-06 09:29 60.87823 66.53465 33750 ft 405 kts 285°
2026-05-06 09:30 60.89526 66.42485 33750 ft 404 kts 285°
2026-05-06 09:30 60.90948 66.33268 33750 ft 404 kts 285°
2026-05-06 09:31 60.92628 66.22303 33749 ft 403 kts 284°
2026-05-06 09:31 60.94303 66.11309 33745 ft 401 kts 284°
2026-05-06 09:32 60.95954 66.00407 33745 ft 400 kts 284°
2026-05-06 09:32 60.97549 65.89808 33764 ft 400 kts 284°
2026-05-06 09:33 60.99188 65.78860 33751 ft 401 kts 284°
2026-05-06 09:33 61.00819 65.67889 33746 ft 401 kts 284°
2026-05-06 09:34 61.02442 65.56908 33745 ft 402 kts 284°
2026-05-06 09:34 61.04060 65.45891 33746 ft 402 kts 284°
2026-05-06 09:35 61.05677 65.34803 33742 ft 402 kts 284°
2026-05-06 09:35 61.07273 65.23782 33740 ft 402 kts 284°
2026-05-06 09:36 61.08870 65.12690 33743 ft 402 kts 283°
2026-05-06 09:36 61.10447 65.01659 33735 ft 401 kts 283°
2026-05-06 09:37 61.11981 64.90852 33747 ft 402 kts 283°
2026-05-06 09:37 61.13547 64.79746 33743 ft 402 kts 283°
2026-05-06 09:38 61.15102 64.68646 33739 ft 402 kts 283°
2026-05-06 09:38 61.16656 64.57488 33740 ft 402 kts 283°
2026-05-06 09:39 61.18192 64.46378 33748 ft 403 kts 283°
2026-05-06 09:39 61.19731 64.35202 33744 ft 403 kts 283°
2026-05-06 09:40 61.21261 64.24021 33741 ft 403 kts 283°
2026-05-06 09:40 61.23544 64.07192 33725 ft 404 kts 283°
2026-05-06 09:41 61.25011 63.96279 33751 ft 404 kts 283°
2026-05-06 09:41 61.26512 63.85038 33748 ft 404 kts 283°
2026-05-06 09:42 61.28011 63.73739 33730 ft 404 kts 283°
2026-05-06 09:42 61.29368 63.62406 33736 ft 402 kts 278°
2026-05-06 09:43 61.30312 63.51041 33746 ft 402 kts 277°
2026-05-06 09:43 61.31244 63.39514 33742 ft 402 kts 277°
2026-05-06 09:44 61.32173 63.28079 33741 ft 402 kts 277°
2026-05-06 09:44 61.33099 63.16634 33733 ft 402 kts 277°
2026-05-06 09:45 61.34023 63.05106 33743 ft 402 kts 277°
2026-05-06 09:45 61.34911 62.93890 33764 ft 403 kts 277°
2026-05-06 09:46 61.35818 62.82319 33746 ft 405 kts 277°
2026-05-06 09:46 61.36719 62.70717 33726 ft 406 kts 277°
2026-05-06 09:47 61.37612 62.59139 33741 ft 406 kts 277°
2026-05-06 09:47 61.38513 62.47461 33748 ft 407 kts 277°
2026-05-06 09:48 61.39402 62.35818 33736 ft 407 kts 277°
2026-05-06 09:48 61.40278 62.24175 33737 ft 406 kts 277°
2026-05-06 09:49 61.41144 62.12543 33729 ft 405 kts 277°
2026-05-06 09:49 61.41997 62.00932 33731 ft 404 kts 277°
2026-05-06 09:50 61.42822 61.89574 33735 ft 404 kts 277°
2026-05-06 09:50 61.43648 61.78049 33734 ft 404 kts 277°
2026-05-06 09:51 61.44471 61.66431 33730 ft 404 kts 277°
2026-05-06 09:51 61.45283 61.54825 33727 ft 404 kts 277°
2026-05-06 09:52 61.46087 61.43182 33718 ft 404 kts 277°
2026-05-06 09:52 61.46880 61.31567 33718 ft 404 kts 277°
2026-05-06 09:53 61.47663 61.19947 33720 ft 403 kts 277°
2026-05-06 09:53 61.48438 61.08346 33728 ft 402 kts 276°
2026-05-06 09:54 61.49193 60.96951 33723 ft 402 kts 276°
2026-05-06 09:54 61.49948 60.85429 33724 ft 402 kts 276°
2026-05-06 09:55 61.50695 60.73845 33727 ft 401 kts 276°
2026-05-06 09:55 61.51436 60.62209 33730 ft 402 kts 276°
2026-05-06 09:56 61.52165 60.50592 33723 ft 401 kts 276°
2026-05-06 09:56 61.52880 60.39042 33725 ft 400 kts 276°
2026-05-06 09:57 61.53581 60.27550 33730 ft 399 kts 276°
2026-05-06 09:57 61.54277 60.15977 33727 ft 399 kts 276°
2026-05-06 09:58 61.54964 60.04418 33729 ft 398 kts 276°
2026-05-06 09:58 61.55621 59.93191 33719 ft 398 kts 276°
2026-05-06 09:59 61.56287 59.81706 33730 ft 397 kts 275°
2026-05-06 09:59 61.56945 59.70214 33733 ft 398 kts 275°
2026-05-06 10:00 61.57594 59.58709 33731 ft 398 kts 275°
2026-05-06 10:00 61.58233 59.47181 33741 ft 400 kts 275°
2026-05-06 10:01 61.58869 59.35550 33743 ft 401 kts 275°
2026-05-06 10:01 61.59496 59.23868 33736 ft 402 kts 275°
2026-05-06 10:02 61.60113 59.12198 33736 ft 403 kts 275°
2026-05-06 10:02 61.60722 59.00483 33742 ft 403 kts 275°
2026-05-06 10:03 61.61305 58.89090 33739 ft 403 kts 275°
2026-05-06 10:03 61.61894 58.77368 33737 ft 403 kts 275°
2026-05-06 10:04 61.62474 58.65639 33736 ft 402 kts 275°
2026-05-06 10:04 61.63041 58.53977 33739 ft 400 kts 275°
2026-05-06 10:05 61.63607 58.42379 33744 ft 399 kts 275°
2026-05-06 10:05 61.64235 58.30787 33738 ft 399 kts 275°
2026-05-06 10:06 61.64867 58.19193 33738 ft 398 kts 275°
2026-05-06 10:06 61.65482 58.07637 33747 ft 398 kts 275°
2026-05-06 10:07 61.66071 57.96285 33748 ft 399 kts 275°
2026-05-06 10:07 61.66661 57.84710 33740 ft 399 kts 275°
2026-05-06 10:08 61.67244 57.73063 33737 ft 398 kts 275°
2026-05-06 10:08 61.67812 57.61529 33735 ft 396 kts 275°
2026-05-06 10:09 61.68367 57.50035 33736 ft 394 kts 275°
2026-05-06 10:09 61.68911 57.38581 33739 ft 392 kts 275°
2026-05-06 10:10 61.69446 57.27120 33767 ft 392 kts 274°
2026-05-06 10:10 61.69966 57.15767 33748 ft 391 kts 274°
2026-05-06 10:11 61.70478 57.04370 33740 ft 391 kts 274°
2026-05-06 10:11 61.70969 56.93221 33733 ft 390 kts 274°
2026-05-06 10:12 61.71462 56.81839 33737 ft 389 kts 274°
2026-05-06 10:12 61.71941 56.70542 33743 ft 389 kts 274°
2026-05-06 10:13 61.72415 56.59171 33740 ft 389 kts 274°
2026-05-06 10:13 61.72877 56.47829 33737 ft 389 kts 274°
2026-05-06 10:14 61.73332 56.36416 33737 ft 390 kts 274°
2026-05-06 10:14 61.73777 56.25041 33740 ft 390 kts 274°
2026-05-06 10:15 61.74215 56.13592 33740 ft 391 kts 273°
2026-05-06 10:15 61.74643 56.02137 33741 ft 391 kts 273°
2026-05-06 10:16 61.75050 55.91006 33727 ft 390 kts 273°
2026-05-06 10:16 61.75391 55.81478 33731 ft 388 kts 273°
2026-05-06 10:17 61.75851 55.68321 33733 ft 386 kts 273°
2026-05-06 10:17 61.76236 55.57031 33730 ft 385 kts 273°
2026-05-06 10:18 61.76549 55.47638 33718 ft 385 kts 273°
2026-05-06 10:18 61.76915 55.36372 33728 ft 385 kts 273°
2026-05-06 10:19 61.77274 55.25061 33728 ft 386 kts 272°
2026-05-06 10:19 61.77625 55.13714 33711 ft 386 kts 272°
2026-05-06 10:20 61.77964 55.02436 33739 ft 387 kts 272°
2026-05-06 10:20 61.78288 54.91341 33722 ft 387 kts 272°
2026-05-06 10:21 61.78613 54.79972 33722 ft 387 kts 272°
2026-05-06 10:21 61.78930 54.68639 33721 ft 386 kts 272°
2026-05-06 10:22 61.79260 54.57337 33714 ft 385 kts 272°
2026-05-06 10:22 61.79584 54.46055 33715 ft 384 kts 272°
2026-05-06 10:23 61.79897 54.34760 33715 ft 384 kts 272°
2026-05-06 10:23 61.80199 54.23512 33702 ft 384 kts 272°
2026-05-06 10:24 61.80491 54.12276 33707 ft 383 kts 272°
2026-05-06 10:24 61.80774 54.00994 33724 ft 383 kts 272°
2026-05-06 10:25 61.81041 53.90005 33719 ft 384 kts 271°
2026-05-06 10:25 61.81307 53.78715 33713 ft 384 kts 271°
2026-05-06 10:26 61.81562 53.67442 33709 ft 385 kts 271°
2026-05-06 10:26 61.81810 53.56096 33709 ft 386 kts 271°
2026-05-06 10:27 61.82050 53.44792 33705 ft 386 kts 271°
2026-05-06 10:27 61.82282 53.33415 33710 ft 386 kts 271°
2026-05-06 10:28 61.82511 53.22109 33699 ft 386 kts 271°
2026-05-06 10:28 61.82732 53.10766 33697 ft 385 kts 271°
2026-05-06 10:29 61.82938 52.99721 33703 ft 385 kts 271°
2026-05-06 10:29 61.83140 52.88389 33697 ft 385 kts 270°
2026-05-06 10:30 61.83331 52.77147 33702 ft 385 kts 270°
2026-05-06 10:30 61.83514 52.65807 33694 ft 385 kts 270°
2026-05-06 10:31 61.83689 52.54448 33681 ft 385 kts 270°
2026-05-06 10:31 61.83855 52.43092 33688 ft 385 kts 270°
2026-05-06 10:32 61.84011 52.31775 33672 ft 384 kts 270°
2026-05-06 10:32 61.84095 52.20488 33674 ft 384 kts 269°
2026-05-06 10:33 61.84123 52.09242 33678 ft 383 kts 269°
2026-05-06 10:33 61.84149 51.98228 33678 ft 383 kts 269°
2026-05-06 10:34 61.84172 51.86936 33666 ft 383 kts 269°
2026-05-06 10:34 61.84189 51.75653 33669 ft 383 kts 269°
2026-05-06 10:35 61.84196 51.64412 33693 ft 385 kts 268°
2026-05-06 10:35 61.84191 51.53034 33667 ft 386 kts 268°
2026-05-06 10:36 61.84177 51.41707 33638 ft 385 kts 268°
2026-05-06 10:36 61.84153 51.30353 33651 ft 384 kts 268°
2026-05-06 10:37 61.84120 51.19061 33666 ft 386 kts 268°
2026-05-06 10:37 61.84080 51.07714 33656 ft 384 kts 268°
2026-05-06 10:38 61.84031 50.96709 33649 ft 382 kts 268°
2026-05-06 10:38 61.83972 50.85460 33664 ft 381 kts 268°
2026-05-06 10:39 61.83904 50.74288 33651 ft 381 kts 268°
2026-05-06 10:39 61.83826 50.63053 33660 ft 380 kts 268°
2026-05-06 10:40 61.83740 50.51893 33698 ft 381 kts 267°
2026-05-06 10:40 61.83644 50.40629 33652 ft 381 kts 267°
2026-05-06 10:41 61.83539 50.29440 33642 ft 380 kts 266°
2026-05-06 10:41 61.83427 50.18314 33638 ft 378 kts 266°
2026-05-06 10:42 61.83305 50.07194 33645 ft 377 kts 266°
2026-05-06 10:42 61.83178 49.96415 33645 ft 376 kts 266°
2026-05-06 10:43 61.83041 49.85351 33648 ft 375 kts 266°
2026-05-06 10:44 61.82850 49.68837 33648 ft 376 kts 267°
2026-05-06 10:44 61.82828 49.57731 33649 ft 377 kts 268°
2026-05-06 10:45 61.82794 49.46624 33646 ft 377 kts 267°
2026-05-06 10:45 61.82734 49.35523 33698 ft 377 kts 266°
2026-05-06 10:46 61.82606 49.24503 33665 ft 376 kts 266°
2026-05-06 10:46 61.82453 49.13396 33656 ft 374 kts 266°
2026-05-06 10:47 61.82302 49.02524 33654 ft 371 kts 266°
2026-05-06 10:47 61.82148 48.91909 33661 ft 369 kts 266°
2026-05-06 10:48 61.81983 48.81066 33665 ft 369 kts 266°
2026-05-06 10:48 61.81810 48.70217 33663 ft 369 kts 265°
2026-05-06 10:49 61.81628 48.59327 33682 ft 370 kts 265°
2026-05-06 10:49 61.81437 48.48449 33687 ft 372 kts 265°
2026-05-06 10:50 61.81237 48.37516 33679 ft 374 kts 265°
2026-05-06 10:50 61.81028 48.26532 33711 ft 374 kts 265°
2026-05-06 10:51 61.80807 48.15442 33709 ft 375 kts 265°
2026-05-06 10:51 61.80580 48.04447 33697 ft 374 kts 265°
2026-05-06 10:52 61.80350 47.93744 33692 ft 372 kts 265°
2026-05-06 10:52 61.80108 47.82875 33704 ft 371 kts 265°
2026-05-06 10:53 61.79858 47.72011 33696 ft 369 kts 264°
2026-05-06 10:53 61.79599 47.61178 33698 ft 368 kts 264°
2026-05-06 10:54 61.79336 47.50454 33702 ft 368 kts 264°
2026-05-06 10:54 61.79061 47.39622 33704 ft 368 kts 264°
2026-05-06 10:55 61.78791 47.28836 33722 ft 369 kts 264°
2026-05-06 10:55 61.78519 47.17938 33721 ft 371 kts 264°
2026-05-06 10:56 61.78230 47.07102 33729 ft 371 kts 264°
2026-05-06 10:56 61.77874 46.96452 33727 ft 372 kts 263°
2026-05-06 10:57 61.77485 46.85517 33719 ft 372 kts 263°
2026-05-06 10:57 61.77095 46.74628 33725 ft 372 kts 263°
2026-05-06 10:58 61.76702 46.63803 33740 ft 372 kts 263°
2026-05-06 10:58 61.76298 46.52890 33737 ft 373 kts 263°
2026-05-06 10:59 61.75886 46.41981 33742 ft 373 kts 263°
2026-05-06 10:59 61.75466 46.31079 33744 ft 372 kts 263°
2026-05-06 11:00 61.75038 46.20199 33746 ft 372 kts 263°
2026-05-06 11:00 61.74601 46.09323 33747 ft 372 kts 263°
2026-05-06 11:01 61.74168 45.98744 33792 ft 371 kts 263°
2026-05-06 11:01 61.73715 45.87896 33761 ft 370 kts 263°
2026-05-06 11:02 61.73255 45.77073 33748 ft 369 kts 263°
2026-05-06 11:02 61.72791 45.66360 33757 ft 368 kts 262°
2026-05-06 11:03 61.72318 45.55664 33749 ft 367 kts 262°
2026-05-06 11:03 61.71837 45.44938 33752 ft 366 kts 262°
2026-05-06 11:04 61.71349 45.34277 33756 ft 366 kts 262°
2026-05-06 11:04 61.70852 45.23582 33758 ft 367 kts 262°
2026-05-06 11:05 61.70350 45.12921 33757 ft 367 kts 262°
2026-05-06 11:05 61.69922 45.03954 33750 ft 367 kts 262°
2026-05-06 11:06 61.69438 44.93508 33756 ft 368 kts 262°
2026-05-06 11:06 61.68937 44.82751 33792 ft 369 kts 262°
2026-05-06 11:07 61.68426 44.71990 33767 ft 370 kts 262°
2026-05-06 11:07 61.67907 44.61268 33760 ft 369 kts 262°
2026-05-06 11:08 61.67380 44.50547 33759 ft 368 kts 262°
2026-05-06 11:08 61.66844 44.39829 33762 ft 366 kts 262°
2026-05-06 11:09 61.66304 44.29209 33751 ft 365 kts 261°
2026-05-06 11:09 61.65758 44.18628 33731 ft 364 kts 261°
2026-05-06 11:10 61.65202 44.08006 33754 ft 364 kts 261°
2026-05-06 11:10 61.64652 43.97667 33761 ft 364 kts 261°
2026-05-06 11:11 61.64083 43.87128 33761 ft 366 kts 261°
2026-05-06 11:11 61.63499 43.76469 33770 ft 367 kts 261°
2026-05-06 11:12 61.62906 43.65790 33764 ft 369 kts 261°
2026-05-06 11:12 61.62300 43.55042 33758 ft 369 kts 261°
2026-05-06 11:13 61.61691 43.44379 33770 ft 369 kts 261°
2026-05-06 11:13 61.61070 43.33657 33766 ft 368 kts 261°
2026-05-06 11:14 61.60444 43.23014 33751 ft 366 kts 261°
2026-05-06 11:14 61.59816 43.12465 33777 ft 365 kts 261°
2026-05-06 11:15 61.59177 43.01877 33772 ft 364 kts 261°
2026-05-06 11:15 61.58548 42.91585 33765 ft 364 kts 261°
2026-05-06 11:16 61.57896 42.81058 33767 ft 364 kts 261°
2026-05-06 11:16 61.57232 42.70478 33771 ft 365 kts 260°
2026-05-06 11:17 61.56563 42.59949 33846 ft 372 kts 260°
2026-05-06 11:17 61.55854 42.48936 33787 ft 389 kts 260°
2026-05-06 11:18 61.55111 42.37513 33756 ft 402 kts 260°
2026-05-06 11:18 61.54025 42.25900 33779 ft 410 kts 255°
2026-05-06 11:19 61.52604 42.14286 33778 ft 411 kts 255°
2026-05-06 11:19 61.51188 42.02705 33776 ft 410 kts 255°
2026-05-06 11:20 61.49807 41.91430 33777 ft 409 kts 255°
2026-05-06 11:20 61.48387 41.79913 33779 ft 408 kts 255°
2026-05-06 11:21 61.46961 41.68423 33777 ft 407 kts 255°
2026-05-06 11:21 61.45527 41.56970 33775 ft 407 kts 255°
2026-05-06 11:22 61.44085 41.45530 33783 ft 407 kts 255°
2026-05-06 11:22 61.42641 41.34164 33842 ft 407 kts 254°
2026-05-06 11:23 61.41176 41.22720 33799 ft 408 kts 254°
2026-05-06 11:23 61.39701 41.11284 33800 ft 407 kts 254°
2026-05-06 11:24 61.38226 40.99929 33785 ft 407 kts 254°
2026-05-06 11:24 61.36767 40.88783 33783 ft 406 kts 254°
2026-05-06 11:25 61.35283 40.77521 33776 ft 405 kts 254°
2026-05-06 11:25 61.33780 40.66204 33797 ft 406 kts 254°
2026-05-06 11:26 61.32265 40.54874 33804 ft 406 kts 254°
2026-05-06 11:26 61.30739 40.43545 33805 ft 407 kts 254°
2026-05-06 11:27 61.29201 40.32209 33809 ft 407 kts 254°
2026-05-06 11:27 61.27654 40.20884 33808 ft 408 kts 253°
2026-05-06 11:28 61.26089 40.09509 33881 ft 408 kts 253°
2026-05-06 11:28 61.24561 39.98480 33810 ft 407 kts 253°
2026-05-06 11:29 61.22987 39.87197 33817 ft 406 kts 253°
2026-05-06 11:29 61.21419 39.76039 33816 ft 405 kts 253°
2026-05-06 11:30 61.19837 39.64853 33817 ft 404 kts 253°
2026-05-06 11:30 61.18242 39.53652 33825 ft 404 kts 253°
2026-05-06 11:31 61.15603 39.35282 33834 ft 404 kts 253°
2026-05-06 11:31 61.09244 38.91838 33823 ft 404 kts 253°
2026-05-06 11:32 61.03423 38.53013 33862 ft 406 kts 252°
2026-05-06 11:32 61.01733 38.41923 33836 ft 405 kts 253°
2026-05-06 11:33 61.00037 38.30868 33850 ft 405 kts 253°
2026-05-06 11:33 60.98332 38.19807 33856 ft 404 kts 253°
2026-05-06 11:34 60.96630 38.08837 33856 ft 405 kts 252°
2026-05-06 11:34 60.94952 37.98090 33862 ft 405 kts 252°
2026-05-06 11:35 60.93220 37.87063 33864 ft 405 kts 252°
2026-05-06 11:35 60.91480 37.76053 33866 ft 405 kts 252°
2026-05-06 11:36 60.89731 37.65061 33864 ft 404 kts 252°
2026-05-06 11:36 60.87972 37.54069 33883 ft 406 kts 252°
2026-05-06 11:37 60.86200 37.43055 33883 ft 407 kts 252°
2026-05-06 11:37 60.84415 37.32030 33882 ft 408 kts 252°
2026-05-06 11:38 60.82567 37.21033 33883 ft 408 kts 251°
2026-05-06 11:38 60.80661 37.10106 33890 ft 408 kts 251°
2026-05-06 11:39 60.78815 36.99561 33889 ft 407 kts 251°
2026-05-06 11:39 60.77098 36.89770 34116 ft 409 kts 251°
2026-05-06 11:39 60.75212 36.79052 34580 ft 411 kts 251°
2026-05-06 11:39 60.74242 36.73556 34848 ft 411 kts 251°
2026-05-06 11:40 60.73269 36.68066 35102 ft 411 kts 251°
2026-05-06 11:40 60.72292 36.62565 35319 ft 412 kts 251°
2026-05-06 11:40 60.71311 36.57059 35512 ft 414 kts 251°
2026-05-06 11:40 60.70322 36.51526 35713 ft 415 kts 251°
2026-05-06 11:41 60.69297 36.45806 35802 ft 419 kts 251°
2026-05-06 11:41 60.65582 36.25221 35922 ft 428 kts 251°
2026-05-06 11:41 60.61441 36.02546 35894 ft 423 kts 251°
2026-05-06 11:41 60.57562 35.81540 35867 ft 410 kts 251°
2026-05-06 11:42 60.53558 35.60087 35880 ft 404 kts 251°
2026-05-06 11:42 60.45334 35.16650 35946 ft 422 kts 252°
2026-05-06 11:43 60.39602 34.72144 35858 ft 411 kts 256°
2026-05-06 11:43 60.33870 34.27878 35952 ft 411 kts 256°
2026-05-06 11:44 60.32100 34.14463 35542 ft 419 kts 256°
2026-05-06 11:44 60.31349 34.08814 35112 ft 413 kts 256°
2026-05-06 11:44 60.30609 34.03273 34748 ft 405 kts 256°
2026-05-06 11:44 60.29914 33.98080 34404 ft 399 kts 256°
2026-05-06 11:45 60.29192 33.92704 34069 ft 396 kts 256°
2026-05-06 11:45 60.28472 33.87358 33685 ft 396 kts 256°
2026-05-06 11:45 60.27747 33.81979 33336 ft 399 kts 256°
2026-05-06 11:45 60.27014 33.76569 33029 ft 402 kts 256°
2026-05-06 11:46 60.26276 33.71144 32721 ft 403 kts 256°
2026-05-06 11:46 60.25542 33.65770 32413 ft 403 kts 256°
2026-05-06 11:46 60.24788 33.60263 32094 ft 402 kts 257°
2026-05-06 11:46 60.24043 33.54845 31792 ft 401 kts 257°
2026-05-06 11:47 60.23308 33.49515 31489 ft 400 kts 257°
2026-05-06 11:47 60.22562 33.44127 31194 ft 399 kts 257°
2026-05-06 11:47 60.21816 33.38755 30889 ft 398 kts 257°
2026-05-06 11:47 60.21072 33.33408 30584 ft 397 kts 257°
2026-05-06 11:48 60.20325 33.28055 30060 ft 397 kts 257°
2026-05-06 11:48 60.19582 33.22754 29416 ft 391 kts 257°
2026-05-06 11:48 60.18847 33.17537 28798 ft 385 kts 257°
2026-05-06 11:48 60.18123 33.12412 28236 ft 379 kts 257°
2026-05-06 11:49 60.17406 33.07357 27599 ft 373 kts 257°
2026-05-06 11:49 60.16699 33.02384 27017 ft 368 kts 257°
2026-05-06 11:49 60.16036 32.97731 26466 ft 363 kts 257°
2026-05-06 11:49 60.15345 32.92889 25921 ft 359 kts 257°
2026-05-06 11:50 60.14661 32.88107 25366 ft 355 kts 256°
2026-05-06 11:50 60.13982 32.83375 24832 ft 351 kts 256°
2026-05-06 11:50 60.13307 32.78686 24310 ft 348 kts 256°
2026-05-06 11:50 60.12637 32.74041 23783 ft 345 kts 256°
2026-05-06 11:51 60.11970 32.69431 23168 ft 344 kts 256°
2026-05-06 11:51 60.11304 32.64842 22511 ft 343 kts 256°
2026-05-06 11:51 60.10637 32.60259 21863 ft 342 kts 256°
2026-05-06 11:51 60.09971 32.55700 21243 ft 340 kts 256°
2026-05-06 11:52 60.09530 32.52687 20794 ft 340 kts 256°
2026-05-06 11:52 60.08863 32.48137 20128 ft 341 kts 256°
2026-05-06 11:52 60.08192 32.43571 19468 ft 342 kts 255°
2026-05-06 11:52 60.07521 32.39011 18817 ft 342 kts 255°
2026-05-06 11:53 60.06846 32.34440 18169 ft 342 kts 255°
2026-05-06 11:53 60.06171 32.29891 17394 ft 342 kts 255°
2026-05-06 11:53 60.05456 32.25345 16693 ft 342 kts 254°
2026-05-06 11:53 60.04690 32.20844 15994 ft 342 kts 253°
2026-05-06 11:54 60.03909 32.16345 15312 ft 342 kts 253°
2026-05-06 11:54 60.03129 32.11856 14665 ft 342 kts 253°
2026-05-06 11:54 60.02352 32.07366 14024 ft 341 kts 253°
2026-05-06 11:54 60.01580 32.02887 13392 ft 340 kts 253°
2026-05-06 11:55 60.00853 31.98673 13001 ft 332 kts 253°
2026-05-06 11:55 60.00110 31.94374 12671 ft 324 kts 253°
2026-05-06 11:55 59.99386 31.90184 12357 ft 316 kts 253°
2026-05-06 11:55 59.98673 31.86066 12088 ft 313 kts 253°
2026-05-06 11:56 59.97959 31.81932 11831 ft 318 kts 253°
2026-05-06 11:56 59.97229 31.77718 11584 ft 324 kts 253°
2026-05-06 11:56 59.96488 31.73464 11336 ft 325 kts 252°
2026-05-06 11:56 59.95744 31.69214 11037 ft 324 kts 252°
2026-05-06 11:57 59.94997 31.64946 10611 ft 328 kts 252°
2026-05-06 11:57 59.94239 31.60633 10199 ft 330 kts 252°
2026-05-06 11:57 59.93479 31.56320 9770 ft 329 kts 252°
2026-05-06 11:57 59.92722 31.52037 9280 ft 326 kts 253°
2026-05-06 11:58 59.91970 31.47789 8835 ft 322 kts 253°
2026-05-06 11:58 59.91251 31.43746 8421 ft 297 kts 253°
2026-05-06 11:58 59.90577 31.39956 8126 ft 286 kts 252°
2026-05-06 11:58 59.89919 31.36253 7811 ft 282 kts 252°
2026-05-06 11:59 59.89269 31.32595 7538 ft 278 kts 252°
2026-05-06 11:59 59.88627 31.28995 7245 ft 274 kts 252°
2026-05-06 11:59 59.87993 31.25441 6960 ft 271 kts 252°
2026-05-06 11:59 59.87364 31.21933 6687 ft 268 kts 252°
2026-05-06 12:00 59.86739 31.18463 6388 ft 265 kts 252°
2026-05-06 12:00 59.86133 31.15038 6102 ft 262 kts 254°
2026-05-06 12:00 59.85593 31.11579 5817 ft 263 kts 255°
2026-05-06 12:00 59.85066 31.08083 5532 ft 264 kts 256°
2026-05-06 12:01 59.84539 31.04580 5244 ft 265 kts 256°
2026-05-06 12:01 59.84007 31.01076 4977 ft 264 kts 256°
2026-05-06 12:01 59.83504 30.97779 4726 ft 261 kts 256°
2026-05-06 12:01 59.82978 30.94343 4449 ft 258 kts 255°
2026-05-06 12:02 59.82463 30.90990 4277 ft 251 kts 256°
2026-05-06 12:02 59.81956 30.87717 4097 ft 244 kts 255°
2026-05-06 12:02 59.81463 30.84555 3956 ft 235 kts 256°
2026-05-06 12:02 59.81000 30.81586 3776 ft 215 kts 256°
2026-05-06 12:03 59.80587 30.78938 3679 ft 193 kts 256°
2026-05-06 12:03 59.80194 30.76452 3605 ft 187 kts 253°
2026-05-06 12:03 59.79613 30.74058 3444 ft 194 kts 245°
2026-05-06 12:03 59.78978 30.71799 3311 ft 189 kts 245°
2026-05-06 12:04 59.78353 30.69558 3183 ft 181 kts 246°
2026-05-06 12:04 59.77754 30.67396 2986 ft 170 kts 245°
2026-05-06 12:04 59.77213 30.65437 2840 ft 160 kts 246°
2026-05-06 12:04 59.76677 30.63448 2741 ft 166 kts 245°
2026-05-06 12:05 59.76118 30.61396 2599 ft 169 kts 245°
2026-05-06 12:05 59.75547 30.59313 2494 ft 172 kts 245°
2026-05-06 12:05 59.75038 30.57233 2366 ft 166 kts 259°
2026-05-06 12:05 59.75119 30.55187 2388 ft 146 kts 285°
2026-05-06 12:06 59.75366 30.53203 2348 ft 145 kts 287°
2026-05-06 12:06 59.75590 30.51334 2269 ft 132 kts 283°
2026-05-06 12:06 59.75784 30.49537 2299 ft 133 kts 292°
2026-05-06 12:06 59.76131 30.47824 2255 ft 140 kts 295°
2026-05-06 12:07 59.76431 30.45962 2027 ft 139 kts 287°
2026-05-06 12:07 59.76722 30.44092 1828 ft 134 kts 289°
2026-05-06 12:07 59.76963 30.42359 1629 ft 134 kts 287°
2026-05-06 12:07 59.77217 30.40568 1455 ft 137 kts 289°
2026-05-06 12:08 59.77491 30.38760 1256 ft 137 kts 289°
2026-05-06 12:08 59.77755 30.36925 1075 ft 141 kts 289°
2026-05-06 12:08 59.78035 30.35034 891 ft 144 kts 288°
2026-05-06 12:08 59.78129 30.34395 812 ft 144 kts 289°
2026-05-06 12:09 59.78298 30.33253 674 ft 141 kts 287°
2026-05-06 12:09 59.78562 30.31372 432 ft 140 kts 288°
2026-05-06 12:09 59.78840 30.29534 251 ft 139 kts 288°
2026-05-06 12:09 59.79115 30.27694 96 ft 137 kts 289°
2026-05-06 12:10 59.79360 30.26070 88 ft 101 kts 285°
2026-05-06 12:10 59.79504 30.25096 86 ft 52 kts 287°
2026-05-06 12:10 59.79590 30.24499 85 ft 37 kts 284°
2026-05-06 12:10 59.79661 30.24050 87 ft 33 kts 288°
2026-05-06 12:11 59.79727 30.23624 87 ft 32 kts 285°
2026-05-06 12:11 59.79823 30.23222 86 ft 29 kts 306°
2026-05-06 12:11 59.79933 30.23028 84 ft 18 kts 351°
2026-05-06 12:11 59.79967 30.23185 84 ft 16 kts 104°
2026-05-06 12:12 59.79929 30.23440 86 ft 25 kts 105°
2026-05-06 12:12 59.79877 30.23798 83 ft 29 kts 104°
2026-05-06 12:12 59.79827 30.24125 87 ft 17 kts 105°
2026-05-06 12:12 59.79793 30.24361 85 ft 19 kts 107°
2026-05-06 12:13 59.79753 30.24625 88 ft 21 kts 106°
2026-05-06 12:13 59.79707 30.24952 87 ft 28 kts 104°
2026-05-06 12:13 59.79657 30.25281 88 ft 22 kts 107°
2026-05-06 12:13 59.79620 30.25530 87 ft 18 kts 105°
2026-05-06 12:14 59.79575 30.25830 88 ft 25 kts 107°
2026-05-06 12:14 59.79538 30.26078 91 ft 16 kts 106°
2026-05-06 12:14 59.79519 30.26209 90 ft 0 kts 107°
2026-05-06 12:16 59.79515 30.26248 89 ft 11 kts 99°
2026-05-06 12:16 59.79601 30.26352 89 ft 21 kts 18°
2026-05-06 12:16 59.79711 30.26416 87 ft 15 kts 17°
2026-05-06 12:17 59.79797 30.26467 87 ft 13 kts 16°
2026-05-06 12:17 59.79895 30.26528 87 ft 16 kts 18°
2026-05-06 12:17 59.79974 30.26576 87 ft 11 kts 18°
2026-05-06 12:17 59.80059 30.26623 87 ft 14 kts 16°
2026-05-06 12:18 59.80124 30.26692 89 ft 8 kts 65°
2026-05-06 12:18 59.80118 30.26806 85 ft 3 kts 106°
2026-05-06 12:18 59.80112 30.26843 88 ft 2 kts 107°
2026-05-06 12:18 59.80109 30.26861 87 ft 0 kts 107°
2026-05-06 12:19 59.80109 30.26862 87 ft 0 kts 107°